GFSGL_700_temp_060.txt.gz
Temp
5 5 5 4 4 3 2 1 2 1 1 2 2 1 1 1 1 1 1 1 0 -1 -1 -2 -2 -3 -3 -4 -4 -4 -4 -4 -5 -5 -5 -6 -6 -7 -8 -9 -9 -10 -10
5 5 4 2 2 1 0 1 0 1 2 2 2 2 2 2 2 1 1 -0 -1 -1 -2 -2 -3 -3 -4 -4 -4 -4 -4 -5 -5 -5 -5 -6 -7 -8 -8 -9 -10 -11 -11
5 5 2 3 2 3 2 1 1 3 3 2 2 2 2 2 1 1 0 -1 -1 -1 -2 -2 -2 -3 -4 -4 -5 -6 -5 -5 -5 -5 -5 -6 -7 -9 -9 -10 -10 -11 -11
5 3 3 3 3 3 3 1 2 3 3 2 2 2 2 1 1 0 0 -1 -2 -3 -3 -3 -3 -4 -4 -5 -6 -5 -5 -5 -6 -7 -7 -8 -8 -9 -10 -10 -11 -11 -12
4 4 3 3 3 3 3 2 2 3 2 2 2 2 1 1 1 1 0 -1 -2 -3 -3 -3 -4 -3 -5 -5 -5 -6 -6 -7 -7 -8 -8 -8 -9 -10 -10 -11 -11 -12 -12
4 3 3 4 3 3 3 3 3 2 2 2 2 1 1 1 1 -0 -1 -2 -2 -3 -3 -4 -4 -4 -5 -6 -6 -7 -8 -8 -8 -9 -9 -9 -10 -10 -10 -11 -11 -12 -13
4 4 4 4 4 3 3 3 2 2 2 2 1 1 1 1 -0 -1 -2 -2 -3 -3 -4 -5 -5 -5 -6 -7 -7 -8 -8 -9 -9 -9 -10 -10 -10 -11 -11 -11 -12 -12 -13
4 4 4 4 3 3 3 2 2 2 2 2 2 1 0 -0 -1 -2 -2 -3 -4 -4 -4 -5 -6 -6 -7 -7 -8 -8 -9 -9 -10 -10 -11 -11 -11 -11 -12 -12 -12 -13 -14
4 4 3 3 3 3 3 2 2 2 2 2 1 0 -0 -1 -2 -2 -3 -3 -4 -4 -5 -6 -7 -7 -8 -8 -8 -9 -10 -10 -10 -10 -11 -11 -11 -12 -13 -13 -13 -14 -14
3 3 3 3 3 3 2 2 2 2 2 1 0 -1 -1 -2 -2 -3 -3 -4 -5 -6 -6 -7 -8 -8 -9 -9 -9 -10 -10 -10 -10 -10 -11 -11 -12 -12 -13 -14 -15 -15 -15
3 3 3 3 2 2 2 2 2 2 1 0 -0 -1 -1 -2 -3 -4 -5 -6 -6 -7 -8 -8 -9 -9 -10 -10 -10 -10 -10 -10 -10 -11 -11 -12 -12 -13 -13 -14 -15 -16 -16
2 2 2 2 2 2 2 1 1 1 0 -1 -1 -2 -2 -3 -4 -5 -6 -7 -8 -8 -9 -9 -10 -10 -10 -10 -11 -11 -11 -11 -11 -12 -12 -12 -13 -13 -14 -14 -15 -16 -17
2 2 2 1 1 1 1 1 0 -0 -1 -2 -2 -3 -4 -5 -6 -7 -8 -9 -9 -10 -10 -10 -10 -10 -11 -11 -11 -11 -12 -12 -12 -12 -13 -13 -14 -14 -14 -15 -16 -17 -18
2 1 1 1 1 1 0 -0 -1 -2 -3 -3 -4 -5 -6 -7 -8 -9 -9 -10 -11 -11 -12 -11 -11 -11 -11 -11 -12 -12 -13 -13 -13 -13 -14 -14 -15 -15 -15 -16 -16 -18 -18
1 1 0 0 -0 -1 -1 -2 -3 -4 -5 -5 -6 -7 -8 -10 -11 -11 -12 -12 -12 -12 -13 -13 -12 -12 -12 -12 -13 -13 -13 -14 -14 -14 -15 -15 -16 -16 -16 -17 -18 -18 -18
0 -0 -0 -1 -2 -2 -3 -4 -5 -6 -6 -7 -9 -11 -13 -14 -13 -12 -13 -13 -13 -13 -13 -13 -13 -12 -13 -13 -13 -13 -14 -14 -15 -15 -16 -17 -17 -17 -17 -18 -18 -18 -18
-1 -1 -2 -3 -4 -4 -5 -6 -6 -7 -8 -12 -13 -13 -12 -12 -12 -12 -12 -13 -13 -14 -14 -14 -14 -13 -13 -14 -14 -14 -15 -15 -15 -16 -17 -18 -18 -18 -18 -18 -18 -18 -18
-3 -3 -4 -5 -6 -6 -6 -7 -8 -8 -10 -11 -10 -11 -12 -13 -13 -13 -13 -13 -15 -15 -15 -15 -15 -15 -15 -15 -15 -15 -16 -16 -17 -17 -18 -18 -19 -19 -19 -19 -18 -18 -18
-4 -4 -5 -6 -6 -7 -7 -8 -9 -10 -10 -11 -12 -12 -12 -13 -13 -13 -13 -14 -14 -15 -15 -15 -15 -16 -16 -16 -16 -16 -17 -17 -18 -18 -19 -19 -19 -19 -19 -19 -18 -18 -18
-5 -6 -7 -8 -9 -9 -10 -10 -10 -11 -12 -12 -12 -12 -12 -13 -13 -14 -14 -14 -15 -15 -15 -16 -16 -17 -17 -17 -17 -18 -18 -19 -19 -19 -20 -20 -20 -20 -19 -19 -19 -18 -19
-8 -9 -9 -10 -10 -11 -11 -12 -12 -12 -13 -13 -13 -13 -13 -14 -14 -15 -15 -16 -16 -16 -17 -17 -18 -18 -18 -18 -19 -19 -19 -20 -20 -20 -20 -20 -20 -20 -20 -20 -19 -19 -19
-9 -10 -11 -12 -12 -12 -12 -13 -13 -13 -13 -13 -14 -14 -15 -15 -15 -16 -16 -17 -17 -17 -18 -18 -19 -19 -19 -19 -20 -20 -20 -21 -21 -21 -21 -21 -21 -21 -21 -20 -20 -19 -19
-11 -12 -12 -13 -13 -13 -13 -13 -13 -14 -14 -14 -15 -15 -16 -16 -17 -17 -17 -18 -18 -19 -19 -20 -20 -20 -21 -21 -21 -22 -21 -22 -22 -22 -22 -21 -21 -21 -21 -21 -20 -20 -19
-12 -13 -13 -13 -13 -13 -13 -14 -14 -14 -15 -15 -16 -17 -17 -18 -18 -19 -19 -20 -20 -20 -21 -21 -21 -21 -22 -22 -22 -23 -23 -23 -22 -22 -22 -22 -22 -22 -22 -21 -21 -20 -20
-14 -14 -14 -14 -14 -14 -14 -15 -15 -16 -17 -17 -18 -18 -19 -20 -20 -21 -21 -21 -22 -22 -22 -22 -23 -23 -23 -23 -23 -23 -24 -23 -23 -23 -23 -23 -23 -23 -22 -22 -22 -21 -20
-14 -14 -14 -15 -15 -16 -16 -16 -17 -17 -18 -18 -19 -20 -21 -21 -22 -23 -23 -23 -23 -23 -23 -24 -24 -24 -24 -24 -24 -24 -24 -24 -24 -24 -23 -23 -23 -23 -23 -22 -22 -21 -21

GFSGL_700_temp_063.txt.gz
Temp
6 5 4 4 4 3 3 2 2 0 1 0 0 1 1 1 0 1 1 1 1 1 0 0 -1 -1 -2 -2 -3 -3 -3 -4 -4 -5 -5 -5 -5 -5 -5 -6 -6 -6 -7
5 5 3 3 1 0 0 1 1 0 1 -0 1 2 1 1 1 1 1 1 1 0 0 -1 -2 -1 -2 -2 -3 -3 -4 -5 -4 -4 -4 -5 -5 -5 -6 -6 -7 -7 -8
5 5 5 2 1 1 2 0 1 1 1 0 1 2 2 1 2 1 2 1 1 0 -1 -2 -1 -2 -3 -3 -4 -4 -5 -5 -5 -5 -5 -5 -5 -6 -6 -7 -8 -8 -9
5 5 5 3 3 2 2 2 2 2 1 1 1 1 2 2 1 1 1 1 0 -0 -0 -1 -2 -3 -3 -3 -4 -5 -5 -4 -6 -6 -5 -6 -6 -7 -8 -8 -8 -9 -9
6 5 5 4 3 3 3 3 2 2 2 1 2 2 2 2 1 1 1 0 0 -1 -0 -1 -1 -3 -2 -3 -4 -5 -5 -5 -6 -6 -6 -7 -8 -8 -9 -9 -9 -9 -9
5 5 5 4 4 3 3 3 3 3 2 2 2 2 2 1 1 1 1 0 0 -0 -1 -1 -2 -3 -3 -4 -4 -5 -5 -6 -6 -7 -7 -8 -8 -9 -9 -10 -10 -10 -9
5 5 4 4 4 3 3 3 3 2 2 2 2 2 2 1 1 1 0 -0 -1 -1 -2 -2 -3 -3 -4 -4 -5 -6 -6 -7 -8 -8 -8 -9 -9 -10 -10 -11 -11 -11 -11
5 4 3 3 3 3 3 3 2 2 2 2 2 1 1 1 1 0 -0 -1 -1 -2 -2 -3 -3 -4 -5 -6 -6 -7 -8 -9 -9 -9 -9 -10 -10 -11 -11 -11 -11 -11 -11
4 4 3 3 2 2 2 2 2 2 2 1 1 1 1 1 0 -0 -1 -1 -2 -2 -3 -4 -5 -5 -6 -7 -8 -8 -9 -9 -10 -10 -10 -11 -11 -11 -12 -12 -12 -12 -12
3 3 3 2 2 2 2 2 2 2 1 1 1 1 1 0 -0 -1 -1 -2 -3 -4 -4 -5 -6 -7 -8 -8 -9 -9 -10 -10 -10 -10 -11 -11 -11 -12 -12 -13 -13 -13 -14
3 2 2 2 2 1 1 2 2 1 1 1 1 0 -1 -1 -1 -2 -3 -4 -4 -5 -6 -7 -8 -8 -9 -9 -10 -10 -10 -10 -10 -11 -11 -11 -12 -12 -13 -13 -14 -14 -15
2 2 2 2 2 1 1 1 1 1 0 0 -0 -1 -2 -2 -3 -4 -5 -5 -6 -7 -8 -8 -9 -10 -10 -10 -11 -11 -12 -11 -11 -11 -12 -12 -12 -13 -13 -13 -14 -15 -16
2 2 2 2 1 1 0 1 0 0 -0 -1 -2 -2 -3 -4 -4 -5 -6 -7 -8 -9 -10 -11 -10 -11 -12 -12 -13 -13 -13 -13 -12 -12 -12 -13 -13 -13 -14 -14 -14 -15 -15
2 1 1 1 1 1 1 0 -0 -1 -1 -2 -3 -3 -4 -5 -6 -7 -8 -9 -10 -11 -12 -12 -12 -12 -14 -14 -14 -14 -13 -13 -13 -13 -13 -14 -14 -14 -14 -15 -15 -15 -15
2 1 1 0 -0 -1 -1 -1 -1 -2 -3 -3 -4 -5 -6 -6 -7 -8 -10 -12 -13 -13 -12 -13 -13 -14 -14 -15 -14 -14 -15 -15 -15 -15 -15 -15 -15 -15 -15 -16 -16 -16 -17
1 0 -0 -1 -2 -2 -2 -3 -3 -3 -4 -5 -6 -6 -6 -7 -10 -12 -13 -11 -12 -13 -13 -13 -13 -14 -15 -15 -14 -15 -15 -15 -15 -15 -16 -15 -15 -16 -16 -16 -17 -18 -18
-0 -1 -2 -2 -3 -3 -3 -4 -5 -5 -5 -6 -6 -7 -8 -9 -9 -11 -12 -12 -13 -13 -13 -14 -14 -14 -14 -14 -15 -15 -15 -15 -16 -16 -16 -16 -16 -17 -17 -17 -18 -18 -19
-2 -2 -3 -4 -4 -4 -4 -5 -6 -6 -6 -7 -8 -9 -10 -11 -12 -12 -13 -13 -13 -14 -14 -13 -13 -14 -15 -15 -15 -15 -16 -16 -17 -17 -17 -17 -17 -18 -18 -18 -19 -19 -19
-2 -3 -4 -5 -5 -6 -6 -7 -7 -8 -9 -10 -10 -11 -12 -12 -13 -13 -13 -14 -14 -14 -14 -14 -15 -15 -15 -16 -16 -16 -17 -17 -18 -18 -18 -18 -19 -19 -19 -19 -19 -19 -19
-4 -5 -6 -7 -7 -8 -8 -9 -10 -10 -11 -11 -12 -12 -13 -13 -13 -13 -13 -14 -14 -14 -15 -15 -15 -16 -16 -17 -17 -17 -18 -18 -19 -19 -19 -19 -20 -20 -20 -20 -20 -20 -20
-6 -7 -8 -8 -9 -10 -10 -11 -11 -12 -12 -13 -13 -13 -13 -13 -14 -14 -14 -14 -15 -15 -16 -16 -17 -17 -17 -18 -18 -19 -19 -20 -20 -20 -20 -20 -21 -21 -21 -21 -21 -20 -20
-9 -9 -9 -9 -10 -11 -12 -12 -13 -13 -13 -13 -14 -14 -14 -14 -15 -15 -15 -16 -16 -17 -17 -18 -18 -19 -19 -20 -20 -20 -21 -21 -21 -21 -21 -22 -22 -22 -22 -21 -21 -21 -20
-9 -10 -11 -12 -12 -12 -13 -13 -13 -14 -14 -14 -14 -15 -15 -15 -16 -16 -16 -17 -18 -18 -19 -19 -20 -21 -21 -21 -22 -22 -22 -22 -22 -23 -23 -23 -23 -23 -22 -22 -22 -21 -21
-12 -12 -13 -13 -13 -14 -14 -14 -14 -15 -15 -15 -15 -16 -16 -16 -17 -18 -18 -19 -20 -20 -21 -22 -22 -22 -23 -23 -23 -23 -23 -23 -23 -23 -23 -23 -23 -23 -23 -22 -22 -22 -21
-13 -14 -14 -14 -14 -14 -14 -15 -15 -15 -16 -16 -16 -17 -17 -18 -19 -19 -20 -21 -22 -22 -23 -24 -24 -24 -24 -24 -24 -24 -25 -25 -25 -24 -24 -24 -24 -24 -23 -23 -23 -22 -22
-14 -14 -14 -15 -15 -15 -15 -16 -16 -16 -17 -17 -18 -19 -19 -20 -21 -22 -22 -23 -24 -25 -25 -25 -25 -25 -25 -25 -25 -25 -25 -25 -25 -25 -25 -24 -24 -24 -24 -24 -23 -23 -22

GFSGL_700_temp_066.txt.gz
Temp
5 5 5 4 4 4 3 3 3 2 1 0 -0 -0 0 0 0 0 0 1 -0 -0 0 0 -0 -0 -1 -1 -2 -2 -3 -2 -2 -4 -3 -4 -6 -5 -5 -5 -5 -5 -6
6 5 5 4 3 3 2 2 2 1 0 1 0 0 0 0 0 0 1 -0 0 0 0 1 -0 -1 -1 -1 -2 -2 -3 -3 -3 -4 -4 -5 -5 -5 -5 -5 -5 -6 -6
6 5 5 5 4 4 3 2 0 1 1 1 1 0 0 0 0 1 1 1 1 1 1 1 0 -0 -1 -2 -2 -3 -3 -4 -5 -5 -5 -5 -5 -5 -5 -6 -6 -7 -7
6 6 6 5 5 4 3 2 2 2 -0 2 1 0 0 -0 1 1 1 2 1 1 1 0 -0 -1 -1 -1 -3 -3 -4 -4 -5 -5 -5 -5 -5 -6 -6 -6 -7 -7 -8
6 6 6 5 5 4 3 2 2 1 1 1 1 1 1 1 1 1 1 1 1 1 0 -0 -1 -0 -1 -1 -3 -4 -4 -5 -5 -5 -5 -6 -6 -7 -7 -7 -7 -7 -8
6 5 5 5 5 4 4 3 3 2 2 2 2 2 1 1 1 1 1 1 1 0 -0 -0 -1 -1 -1 -2 -3 -4 -4 -5 -6 -6 -6 -7 -7 -7 -8 -8 -8 -8 -9
6 5 5 5 4 4 3 3 3 2 2 2 1 1 1 1 1 1 1 1 -0 -0 -1 -2 -1 -2 -2 -3 -4 -4 -5 -5 -6 -6 -7 -8 -8 -8 -9 -9 -10 -10 -10
6 5 5 4 4 3 3 3 2 2 2 1 1 2 2 1 1 1 1 0 -1 -1 -1 -1 -2 -2 -3 -4 -4 -5 -5 -6 -7 -7 -8 -9 -9 -10 -10 -11 -11 -11 -11
6 5 5 4 3 3 3 2 2 2 2 2 1 1 1 1 1 1 0 -0 -0 -1 -1 -2 -2 -3 -4 -4 -5 -6 -7 -7 -8 -9 -9 -10 -11 -12 -12 -12 -12 -12 -12
6 5 4 3 3 3 2 2 2 2 2 1 1 1 1 1 0 -0 -0 -1 -1 -1 -2 -2 -3 -3 -4 -5 -6 -7 -8 -9 -10 -11 -11 -12 -13 -12 -13 -13 -13 -13 -13
5 4 3 3 2 2 2 1 2 2 2 1 1 1 0 -0 -0 -0 -1 -1 -1 -2 -3 -3 -4 -5 -6 -7 -8 -9 -10 -10 -12 -12 -12 -13 -13 -14 -14 -13 -14 -14 -14
5 3 3 2 2 1 1 1 1 1 1 1 0 0 -0 -1 -1 -1 -1 -2 -3 -4 -4 -5 -6 -7 -8 -8 -9 -11 -12 -12 -12 -13 -13 -14 -14 -14 -14 -14 -14 -14 -15
4 3 2 1 1 2 1 -0 0 0 0 -0 -0 -0 -1 -1 -2 -3 -3 -4 -4 -5 -6 -7 -8 -9 -10 -11 -12 -12 -13 -13 -13 -13 -14 -14 -14 -14 -14 -14 -15 -15 -15
3 3 2 2 2 1 0 -1 -1 -0 -0 -1 -2 -2 -2 -3 -3 -4 -5 -5 -6 -6 -8 -10 -11 -12 -12 -11 -12 -12 -13 -13 -13 -14 -14 -14 -14 -15 -15 -15 -15 -15 -15
2 1 1 1 1 0 -0 -2 -1 -1 -2 -2 -3 -3 -3 -4 -5 -5 -6 -6 -7 -8 -9 -10 -11 -11 -12 -12 -13 -13 -13 -13 -14 -14 -14 -15 -15 -15 -15 -16 -16 -16 -16
1 0 -0 0 -0 -1 -2 -3 -3 -3 -3 -4 -4 -4 -5 -5 -6 -6 -7 -8 -8 -9 -11 -12 -12 -13 -13 -13 -13 -13 -14 -14 -15 -15 -15 -16 -16 -16 -16 -17 -17 -17 -17
0 -0 -1 -1 -2 -2 -3 -3 -4 -4 -5 -5 -6 -6 -7 -7 -8 -8 -9 -11 -11 -12 -13 -13 -13 -13 -14 -14 -14 -14 -15 -15 -16 -16 -16 -16 -17 -17 -17 -17 -18 -18 -17
-1 -2 -2 -3 -3 -3 -4 -4 -5 -5 -6 -7 -8 -9 -9 -10 -11 -11 -12 -12 -13 -13 -13 -14 -14 -14 -14 -15 -15 -15 -16 -16 -16 -17 -17 -17 -18 -18 -18 -18 -18 -18 -18
-2 -2 -3 -4 -4 -5 -5 -6 -7 -8 -8 -9 -9 -10 -10 -11 -12 -12 -13 -13 -14 -14 -14 -14 -15 -15 -15 -16 -16 -16 -17 -17 -18 -18 -19 -19 -19 -19 -19 -19 -19 -19 -19
-3 -4 -5 -6 -6 -7 -8 -8 -9 -9 -9 -10 -11 -11 -12 -12 -13 -13 -14 -14 -14 -15 -15 -15 -15 -15 -16 -16 -17 -18 -18 -19 -19 -20 -20 -20 -20 -20 -20 -20 -20 -20 -20
-6 -7 -7 -8 -8 -9 -9 -9 -10 -10 -11 -12 -12 -13 -13 -14 -14 -14 -14 -15 -15 -15 -15 -16 -16 -17 -17 -18 -19 -19 -20 -20 -21 -21 -21 -22 -22 -22 -22 -22 -22 -21 -21
-8 -8 -9 -9 -9 -10 -10 -11 -12 -12 -13 -13 -14 -14 -14 -15 -15 -15 -15 -15 -16 -16 -17 -17 -18 -19 -19 -20 -21 -21 -22 -22 -22 -23 -23 -23 -23 -23 -23 -23 -23 -22 -22
-9 -10 -10 -11 -11 -12 -12 -13 -13 -14 -14 -14 -14 -15 -15 -15 -15 -16 -16 -17 -17 -18 -18 -19 -20 -20 -21 -22 -23 -23 -23 -24 -24 -24 -24 -24 -24 -24 -24 -24 -23 -23 -22
-11 -12 -12 -13 -13 -13 -13 -14 -14 -14 -15 -15 -15 -15 -15 -16 -16 -17 -17 -18 -19 -19 -20 -20 -21 -22 -23 -24 -25 -25 -25 -25 -25 -25 -25 -25 -25 -25 -25 -24 -24 -23 -23
-13 -13 -13 -14 -14 -14 -14 -15 -15 -15 -15 -15 -16 -16 -17 -17 -18 -18 -19 -20 -20 -21 -22 -23 -23 -24 -25 -26 -26 -26 -26 -26 -26 -26 -26 -26 -26 -25 -25 -25 -24 -24 -24
-14 -14 -14 -14 -15 -15 -15 -15 -16 -16 -16 -17 -17 -18 -18 -19 -19 -20 -21 -21 -22 -23 -24 -24 -25 -25 -26 -26 -26 -27 -27 -27 -27 -27 -26 -26 -26 -26 -26 -25 -25 -24 -24

GFSGL_700_temp_069.txt.gz
Temp
6 5 5 5 4 4 4 4 3 3 3 2 2 1 1 1 0 -0 0 0 0 -0 -0 -0 -0 -1 -0 0 -0 -0 -1 -2 -2 -2 -3 -3 -3 -5 -5 -5 -5 -5 -5
6 6 5 5 4 4 4 4 4 3 3 2 1 -0 1 0 0 0 -0 0 -0 -0 0 -0 -0 -1 0 -0 -0 -1 -2 -1 -2 -2 -3 -4 -5 -5 -5 -6 -5 -5 -5
6 6 6 5 4 4 4 4 3 3 2 2 0 -1 0 1 0 0 -0 0 -0 -0 -0 -0 -0 -1 0 -0 -1 -1 -1 -2 -3 -3 -4 -4 -4 -5 -5 -5 -6 -6 -6
6 6 6 6 5 5 4 4 3 2 2 1 1 -1 -0 0 -0 -0 0 -0 -0 -0 -0 -0 0 0 1 -1 -1 -1 -2 -3 -3 -3 -4 -4 -4 -5 -5 -6 -6 -6 -7
6 6 6 6 6 5 4 4 3 2 2 2 1 -0 0 1 0 -0 -0 -1 -0 0 -0 0 1 1 0 -0 -2 -1 -2 -3 -2 -2 -4 -4 -5 -6 -6 -6 -7 -7 -8
6 6 6 6 6 5 5 5 4 4 3 2 2 1 1 1 1 0 0 1 0 0 0 0 1 0 -1 -2 -2 -1 -2 -3 -3 -4 -4 -4 -6 -7 -7 -7 -8 -8 -8
6 6 6 5 5 5 4 4 4 3 3 3 2 2 1 1 1 1 1 1 1 1 1 0 0 -1 -1 -1 -1 -2 -2 -3 -4 -5 -6 -6 -7 -7 -8 -8 -9 -9 -10
6 6 6 5 5 4 4 4 4 3 3 3 2 2 2 2 2 2 2 1 1 0 -0 -1 -1 -1 -2 -2 -2 -2 -3 -4 -5 -6 -6 -7 -8 -8 -9 -9 -10 -11 -11
6 6 6 5 5 4 4 4 3 3 2 2 2 2 2 2 2 2 1 1 1 0 -1 -1 -1 -2 -2 -2 -2 -3 -5 -5 -6 -7 -8 -8 -9 -10 -10 -11 -12 -12 -12
6 6 6 5 4 4 4 3 3 3 2 2 2 2 2 1 1 1 1 1 0 -0 -1 -2 -3 -2 -2 -3 -3 -5 -5 -6 -7 -8 -9 -10 -10 -10 -11 -12 -13 -13 -13
6 6 5 5 4 4 3 3 3 2 2 2 2 1 1 1 1 1 1 0 -1 -1 -1 -3 -2 -2 -3 -4 -5 -6 -7 -8 -10 -11 -11 -12 -12 -12 -13 -13 -13 -13 -13
6 6 5 4 3 3 3 2 2 2 2 1 1 1 1 0 -1 -1 -1 -1 -1 -3 -4 -3 -3 -4 -5 -5 -6 -8 -10 -12 -13 -12 -12 -12 -12 -13 -13 -13 -13 -14 -14
6 5 4 4 3 3 2 2 2 1 1 1 1 1 -0 -1 -1 -1 -1 -3 -4 -4 -4 -4 -5 -5 -6 -7 -8 -10 -12 -12 -12 -12 -13 -13 -13 -13 -13 -14 -14 -14 -14
4 4 3 3 3 2 1 1 1 0 -0 -2 -1 -1 -2 -2 -3 -3 -4 -4 -4 -4 -5 -5 -6 -6 -7 -8 -9 -10 -12 -12 -13 -13 -13 -13 -13 -14 -14 -14 -14 -15 -15
3 3 3 2 2 1 1 1 -1 -2 -2 -1 -1 -2 -3 -3 -4 -4 -4 -4 -5 -6 -6 -6 -8 -9 -10 -10 -11 -12 -13 -13 -13 -13 -14 -14 -14 -14 -15 -15 -15 -15 -15
1 1 1 1 1 1 -0 -1 -1 -2 -3 -3 -3 -4 -4 -4 -5 -5 -5 -6 -6 -7 -8 -9 -10 -10 -11 -12 -13 -13 -14 -14 -14 -14 -14 -15 -15 -15 -15 -16 -16 -16 -16
-1 -1 -0 -2 -1 -2 -2 -2 -3 -3 -3 -4 -4 -5 -5 -6 -6 -6 -7 -8 -9 -10 -10 -11 -11 -12 -13 -13 -14 -14 -14 -15 -15 -15 -15 -16 -16 -16 -16 -17 -17 -17 -18
-2 -2 -2 -2 -3 -3 -3 -3 -4 -5 -5 -5 -6 -7 -8 -8 -9 -9 -10 -10 -11 -12 -12 -12 -13 -14 -14 -14 -14 -15 -15 -15 -16 -16 -16 -17 -17 -18 -18 -18 -18 -19 -19
-2 -3 -3 -3 -4 -4 -4 -4 -5 -6 -6 -7 -8 -9 -9 -10 -10 -11 -11 -12 -12 -13 -13 -14 -14 -15 -15 -15 -15 -16 -16 -16 -17 -17 -18 -19 -19 -19 -20 -20 -20 -20 -20
-3 -3 -4 -4 -5 -5 -6 -6 -7 -8 -8 -9 -9 -10 -10 -11 -11 -12 -12 -13 -14 -14 -14 -15 -15 -15 -15 -16 -16 -17 -17 -18 -19 -19 -20 -20 -21 -21 -22 -22 -22 -22 -21
-5 -6 -6 -7 -7 -8 -8 -9 -9 -9 -10 -10 -10 -11 -12 -12 -13 -13 -14 -14 -14 -15 -15 -15 -15 -16 -16 -17 -17 -18 -19 -20 -20 -21 -22 -22 -23 -23 -23 -23 -23 -23 -23
-8 -8 -8 -9 -9 -9 -10 -10 -10 -11 -11 -12 -12 -13 -13 -14 -14 -14 -15 -15 -15 -15 -16 -16 -17 -17 -18 -18 -19 -20 -20 -21 -22 -23 -24 -24 -24 -24 -25 -25 -24 -24 -24
-10 -10 -10 -10 -11 -11 -12 -12 -13 -13 -13 -14 -14 -14 -15 -15 -15 -15 -16 -16 -16 -17 -17 -18 -18 -19 -19 -20 -21 -22 -22 -23 -24 -25 -25 -26 -26 -26 -26 -26 -25 -25 -25
-11 -12 -12 -12 -13 -13 -13 -14 -14 -14 -14 -14 -15 -15 -15 -15 -16 -16 -17 -17 -18 -18 -19 -19 -20 -21 -21 -23 -23 -24 -25 -25 -26 -26 -26 -26 -27 -27 -26 -26 -26 -26 -25
-13 -13 -13 -13 -14 -14 -14 -14 -14 -15 -15 -15 -16 -16 -16 -17 -17 -18 -18 -19 -19 -20 -21 -21 -22 -23 -24 -24 -25 -25 -26 -26 -26 -26 -26 -27 -27 -27 -27 -26 -26 -26 -26
-14 -14 -14 -14 -14 -15 -15 -15 -16 -16 -16 -17 -17 -17 -18 -18 -19 -19 -20 -21 -21 -22 -23 -23 -24 -24 -24 -25 -25 -26 -26 -26 -26 -26 -27 -27 -27 -27 -27 -27 -26 -26 -26

GFSGL_700_temp_072.txt.gz
Temp
6 6 6 5 5 5 5 4 4 4 4 4 3 3 2 1 1 1 1 0 0 0 0 -0 -0 -0 -0 -1 -1 -1 -1 -1 -1 -1 -2 -2 -2 -2 -3 -2 -3 -3 -4
6 6 6 5 5 5 5 5 4 4 3 3 3 2 2 2 1 1 1 1 1 0 -0 -1 -0 -1 -1 -1 -1 -1 -1 -1 -0 -1 -1 -1 -2 -3 -3 -3 -4 -5 -5
6 6 6 5 5 5 5 5 4 4 4 3 3 3 2 1 1 1 1 0 -0 -0 -1 -1 -1 -1 -1 -1 -1 -1 -0 -1 -1 -2 -1 -2 -3 -3 -3 -4 -5 -5 -5
7 6 6 6 6 5 4 4 4 4 4 3 3 2 1 1 1 0 -0 -0 -0 -0 -1 -0 -1 -1 -1 -1 -1 -1 -1 -1 -1 -2 -2 -2 -3 -3 -3 -5 -5 -5 -5
7 7 6 6 6 6 5 5 4 4 3 3 2 2 2 1 0 -1 -1 -0 -0 -0 -0 -0 -0 -1 -1 -1 -1 -1 -1 -2 -2 -1 -2 -2 -2 -3 -4 -5 -5 -6 -7
7 6 6 6 6 6 6 5 5 4 4 3 2 2 2 1 0 -0 -0 0 0 0 -0 -0 -0 -0 -0 -0 -0 -1 -1 -2 -2 -2 -2 -3 -4 -4 -5 -6 -6 -7 -8
7 6 6 6 6 6 5 5 5 4 4 4 3 2 2 2 1 1 1 0 0 0 0 1 1 0 -0 -0 -1 -2 -2 -1 -2 -3 -3 -3 -5 -5 -7 -7 -7 -8 -8
6 6 6 6 6 6 5 5 5 4 4 4 3 3 3 2 1 1 0 -0 0 0 1 1 0 0 -0 -1 -1 -1 -1 -1 -2 -4 -4 -3 -6 -7 -7 -7 -8 -9 -9
7 7 6 6 6 5 5 5 4 4 4 4 3 3 2 2 2 1 1 1 1 1 1 0 0 0 -0 -1 -1 -2 -2 -2 -3 -4 -5 -6 -6 -7 -8 -9 -9 -10 -10
7 6 6 6 6 5 5 5 4 4 4 3 3 3 2 2 2 2 2 1 1 1 1 -0 -1 0 -1 -1 -1 -2 -3 -3 -5 -6 -6 -7 -7 -8 -10 -11 -11 -11 -12
7 7 6 6 6 6 5 4 4 4 3 3 2 2 2 2 2 2 1 1 1 1 0 -0 -0 -1 -1 -2 -3 -3 -4 -4 -6 -7 -7 -7 -8 -9 -10 -11 -12 -12 -12
7 7 6 6 6 5 5 4 3 3 2 2 2 2 2 2 2 1 1 1 1 -1 -1 -1 -1 -2 -3 -4 -5 -5 -5 -6 -7 -7 -8 -9 -10 -11 -12 -13 -12 -13 -13
6 6 6 6 6 5 4 3 3 2 2 2 1 1 1 1 0 0 -0 -1 -1 -0 -2 -2 -4 -5 -5 -5 -6 -6 -6 -7 -8 -9 -10 -11 -11 -12 -12 -13 -13 -13 -14
5 5 5 4 5 3 3 3 3 2 2 2 1 1 0 -1 -1 -1 -2 -1 -2 -3 -4 -5 -5 -5 -6 -7 -7 -9 -9 -9 -10 -10 -11 -12 -12 -13 -13 -13 -14 -14 -14
4 4 4 4 4 3 3 2 1 1 1 1 1 0 -2 -1 -2 -2 -3 -4 -4 -5 -5 -6 -6 -7 -8 -9 -9 -9 -10 -10 -11 -11 -12 -13 -13 -14 -14 -14 -14 -14 -15
2 2 2 2 2 1 1 1 1 1 0 -1 -2 -2 -2 -2 -3 -4 -5 -5 -5 -6 -8 -8 -9 -9 -10 -10 -10 -11 -11 -11 -12 -13 -13 -14 -14 -14 -14 -15 -15 -15 -16
0 0 -0 -0 -1 -1 -1 -2 -1 -1 -2 -3 -3 -3 -3 -4 -4 -5 -6 -7 -8 -9 -9 -9 -10 -10 -10 -11 -12 -12 -13 -13 -14 -14 -14 -14 -15 -15 -15 -16 -16 -17 -17
-1 -1 -1 -1 -2 -2 -3 -3 -3 -4 -4 -4 -4 -4 -5 -6 -6 -7 -8 -8 -9 -9 -10 -10 -11 -11 -12 -12 -13 -13 -14 -14 -14 -15 -15 -15 -16 -17 -17 -18 -18 -19 -19
-3 -3 -3 -3 -3 -3 -3 -3 -4 -4 -5 -5 -6 -6 -7 -8 -8 -9 -10 -10 -10 -11 -11 -11 -12 -12 -13 -13 -14 -14 -14 -15 -16 -16 -17 -17 -18 -18 -19 -20 -20 -21 -21
-4 -4 -4 -5 -5 -5 -5 -5 -6 -6 -7 -8 -8 -9 -9 -10 -10 -10 -11 -11 -11 -12 -13 -13 -13 -14 -14 -14 -15 -15 -16 -17 -17 -17 -18 -19 -19 -20 -21 -22 -23 -23 -23
-5 -5 -6 -6 -7 -7 -7 -8 -8 -9 -9 -9 -10 -10 -10 -10 -11 -11 -12 -13 -13 -13 -14 -14 -14 -15 -15 -16 -16 -17 -17 -18 -19 -19 -20 -21 -22 -22 -23 -24 -24 -25 -24
-8 -8 -9 -9 -9 -9 -10 -10 -10 -10 -11 -11 -11 -12 -12 -12 -13 -13 -13 -14 -14 -14 -14 -15 -15 -16 -17 -17 -18 -18 -19 -20 -21 -21 -22 -23 -24 -25 -25 -26 -26 -26 -25
-10 -11 -11 -10 -11 -11 -11 -11 -12 -12 -12 -12 -13 -13 -13 -14 -14 -14 -14 -14 -15 -16 -16 -16 -17 -18 -18 -19 -20 -20 -21 -22 -23 -23 -24 -25 -25 -26 -26 -26 -26 -26 -26
-12 -12 -12 -12 -12 -13 -13 -13 -13 -13 -13 -14 -14 -14 -14 -15 -15 -15 -16 -16 -17 -17 -18 -18 -19 -20 -20 -21 -21 -22 -23 -23 -24 -24 -25 -26 -26 -26 -26 -26 -27 -27 -26
-13 -13 -13 -13 -13 -13 -13 -13 -14 -14 -14 -15 -15 -15 -16 -16 -17 -17 -17 -18 -18 -19 -19 -20 -20 -21 -22 -22 -23 -23 -24 -24 -25 -25 -26 -26 -26 -26 -27 -27 -27 -27 -27
-13 -14 -14 -14 -14 -14 -15 -15 -15 -16 -16 -17 -17 -17 -17 -18 -18 -18 -19 -19 -20 -20 -21 -21 -22 -22 -23 -23 -24 -24 -24 -25 -25 -25 -26 -26 -26 -27 -27 -27 -27 -27 -27

GFSGL_700_temp_075.txt.gz
Temp
6 6 6 6 6 5 5 5 5 4 4 4 4 3 2 1 -0 -0 -0 -0 -0 -0 -0 0 1 0 0 -0 -0 -1 -1 -1 -1 -1 -1 -1 -1 -1 -1 -2 -2 -2 -2
7 7 6 6 6 6 6 5 5 5 4 4 4 3 3 3 2 1 1 1 1 1 1 1 1 0 -0 -0 -1 -1 -1 -1 -1 -1 -1 -1 -2 -1 -2 -2 -3 -3 -3
7 7 6 6 6 6 5 5 5 5 4 4 4 3 3 3 3 2 2 2 1 1 1 1 1 0 0 -0 -0 -1 -1 -2 -2 -1 -1 -1 -1 -1 -2 -2 -2 -3 -3
7 7 7 6 6 6 5 5 5 5 5 4 4 4 3 3 3 3 2 2 2 2 1 1 0 1 1 -1 -1 -1 -1 -1 -1 -1 -2 -1 -1 -1 -2 -2 -2 -3 -3
7 7 7 7 6 6 6 5 5 5 5 4 4 3 3 3 3 2 2 1 1 -0 -2 -1 -1 -0 -0 -1 -1 -1 -0 -1 -1 -1 -1 -1 -1 -2 -2 -2 -3 -4 -5
7 7 7 7 7 6 6 6 6 5 5 4 4 4 3 3 3 2 2 1 -0 -1 -1 -1 -1 -0 -1 0 -0 -0 -0 -0 -1 -1 -1 -1 -1 -2 -2 -3 -4 -4 -5
7 7 7 7 7 7 6 6 6 6 5 5 4 4 4 3 3 2 1 1 -0 -0 -0 -0 0 -0 -1 -0 0 -0 -0 -1 -1 -1 -1 -1 -2 -3 -3 -4 -4 -5 -6
7 7 7 7 6 6 6 6 6 6 5 5 5 4 4 3 3 3 2 1 0 1 1 1 1 -0 0 -0 -1 -0 0 -0 -1 -1 -1 -1 -3 -4 -5 -4 -5 -6 -6
6 7 7 7 6 6 6 6 6 6 6 5 5 5 4 4 3 3 2 2 1 1 1 1 0 0 -0 -0 0 -1 -0 -0 -0 -1 -2 -4 -4 -4 -6 -6 -6 -6 -7
6 6 6 6 6 6 6 6 6 5 5 5 5 4 4 4 3 3 2 2 2 1 1 1 0 0 -0 0 0 -0 -1 -1 -2 -2 -4 -4 -5 -6 -6 -6 -7 -8 -9
5 6 6 6 6 5 4 4 5 5 5 4 4 4 3 3 3 2 2 2 1 1 1 1 0 0 -0 -1 -1 -1 -2 -2 -4 -5 -5 -5 -6 -6 -7 -8 -9 -9 -11
5 6 6 6 6 5 5 5 6 5 5 4 4 3 3 2 1 2 2 2 1 1 1 -0 -1 -1 -0 -0 -1 -1 -5 -5 -5 -5 -6 -6 -7 -8 -9 -9 -10 -11 -12
5 5 5 5 6 6 5 5 5 4 4 4 3 2 1 1 -0 1 1 1 1 1 0 -1 -1 -1 -1 -2 -4 -5 -5 -5 -6 -6 -7 -8 -8 -9 -10 -11 -11 -12 -12
4 5 5 4 4 4 4 4 4 3 2 1 1 1 0 1 1 1 1 0 -0 -1 -1 -1 -2 -2 -3 -5 -5 -6 -6 -7 -7 -8 -9 -10 -10 -10 -11 -12 -12 -13 -13
3 3 3 3 3 2 2 2 1 1 0 -0 -0 -0 -0 -1 -1 -1 -2 -1 -2 -2 -2 -4 -5 -6 -6 -6 -6 -7 -7 -8 -9 -10 -10 -11 -11 -12 -13 -13 -13 -13 -14
1 1 1 1 1 2 0 -0 -0 -0 -0 0 -0 -1 -1 -1 -2 -2 -2 -2 -4 -5 -6 -6 -6 -6 -7 -7 -8 -9 -9 -10 -11 -11 -11 -12 -13 -13 -13 -14 -14 -14 -15
-1 -0 -1 0 0 0 -0 0 -0 -1 -1 -0 -1 -1 -2 -3 -2 -3 -5 -6 -6 -7 -7 -7 -7 -8 -9 -10 -10 -11 -11 -11 -12 -13 -13 -13 -14 -14 -14 -15 -15 -16 -16
-4 -4 -4 -2 -2 -2 -2 -2 -2 -2 -3 -3 -3 -3 -3 -5 -7 -7 -7 -8 -8 -8 -9 -9 -10 -10 -11 -11 -11 -12 -13 -13 -13 -14 -14 -14 -14 -15 -15 -16 -16 -17 -18
-3 -4 -4 -3 -3 -3 -3 -4 -4 -4 -4 -5 -5 -6 -7 -7 -8 -8 -9 -9 -10 -10 -10 -11 -11 -11 -12 -12 -13 -13 -14 -14 -14 -14 -15 -15 -16 -16 -17 -17 -18 -19 -20
-4 -4 -5 -5 -5 -5 -5 -6 -6 -7 -7 -7 -8 -8 -8 -9 -9 -9 -10 -10 -11 -11 -11 -12 -12 -13 -13 -13 -14 -14 -14 -15 -15 -16 -16 -17 -17 -18 -19 -19 -20 -21 -23
-6 -6 -7 -7 -7 -8 -8 -8 -9 -9 -9 -9 -9 -10 -10 -10 -11 -11 -11 -11 -12 -12 -13 -13 -14 -14 -14 -14 -15 -15 -16 -16 -17 -18 -18 -19 -19 -20 -21 -22 -23 -24 -25
-9 -9 -9 -10 -10 -10 -10 -10 -10 -10 -11 -11 -11 -11 -12 -12 -12 -12 -13 -13 -13 -13 -14 -14 -14 -15 -15 -16 -16 -17 -17 -18 -19 -19 -20 -21 -22 -22 -23 -24 -24 -25 -25
-11 -11 -11 -11 -11 -11 -11 -11 -11 -11 -12 -12 -12 -13 -13 -13 -13 -13 -13 -14 -14 -15 -15 -16 -16 -16 -17 -17 -18 -19 -19 -20 -20 -21 -22 -23 -23 -24 -24 -24 -25 -25 -26
-12 -12 -12 -12 -12 -12 -12 -12 -12 -13 -13 -13 -13 -13 -14 -14 -14 -15 -15 -15 -16 -16 -16 -17 -17 -18 -18 -19 -20 -20 -21 -21 -22 -22 -23 -23 -24 -24 -24 -25 -25 -26 -26
-13 -13 -12 -12 -13 -13 -13 -13 -13 -14 -14 -14 -14 -15 -15 -16 -16 -16 -17 -17 -17 -17 -18 -18 -19 -20 -20 -21 -21 -21 -22 -22 -23 -23 -24 -24 -24 -25 -25 -25 -26 -26 -26
-13 -14 -14 -14 -14 -14 -15 -15 -15 -15 -16 -16 -16 -16 -17 -17 -17 -17 -18 -18 -18 -19 -19 -20 -20 -21 -21 -21 -22 -22 -23 -23 -23 -24 -24 -25 -25 -25 -26 -26 -26 -26 -26

GFSGL_700_temp_078.txt.gz
Temp
7 7 6 6 6 6 6 6 5 5 5 5 4 3 2 2 0 -0 -0 -1 -0 -1 -1 -1 -1 -1 -1 -0 -0 -0 -0 -1 -0 -0 -0 -1 -0 -1 -0 -1 -1 -1 -2
7 7 6 6 6 6 6 6 5 5 5 5 5 4 4 3 2 1 0 -1 -1 -1 -0 -1 -1 -1 -0 0 -0 -0 -0 -0 -1 -0 -1 -1 -2 -2 -0 -1 -1 -1 -2
7 7 7 7 6 6 6 6 5 5 5 5 5 5 4 4 3 3 2 2 1 0 0 -0 -0 -1 -0 -0 -0 -0 -0 -1 -1 -1 -1 -1 -1 -2 -2 -2 -1 -2 -2
7 7 7 7 7 6 6 6 6 5 5 5 5 4 4 4 4 4 3 3 2 2 1 1 0 -0 0 -0 -0 -1 -1 -1 -1 -1 -1 -1 -1 -1 -2 -2 -0 -1 -2
7 7 7 7 6 6 6 6 6 5 5 5 4 4 4 4 4 3 3 3 2 2 2 1 1 0 -1 -1 -1 -1 -1 -1 -1 -1 -1 -0 -0 -1 -1 -1 -1 -1 -2
7 7 7 7 7 7 6 6 6 6 5 5 5 5 4 4 4 4 3 3 2 2 2 2 1 -1 0 -1 -1 -1 -1 -1 -1 -1 -1 -1 -1 -1 -1 -2 -2 -2 -2
6 6 7 7 7 7 7 6 7 7 6 6 6 5 5 4 4 3 3 2 2 2 2 1 1 0 -1 -1 -1 -1 -1 -1 -1 -1 -1 -1 -1 -1 -1 -2 -1 -2 -4
5 6 6 6 7 7 7 7 7 7 7 6 6 6 5 5 5 4 3 2 1 1 1 1 1 1 -0 -0 0 -0 -0 -0 -1 -1 -1 -1 -1 -1 -1 -2 -3 -4 -4
5 4 6 6 6 6 6 6 6 6 6 6 6 6 5 5 5 5 4 3 2 2 0 1 1 1 1 1 0 0 0 -0 0 -1 -1 -1 -1 -1 -2 -2 -4 -4 -5
4 4 5 5 5 5 5 6 6 6 6 6 5 5 5 5 5 4 4 4 3 2 2 1 1 1 1 0 -0 1 1 0 0 -0 -1 -1 -1 -3 -3 -5 -5 -5 -6
4 5 4 5 5 5 5 5 6 5 5 5 5 5 5 4 5 4 3 3 3 2 2 1 0 -0 -0 -0 0 0 0 -0 -1 -1 -1 -2 -3 -5 -5 -5 -6 -7 -7
3 4 4 4 4 5 5 5 5 3 4 3 3 3 3 4 4 3 3 2 2 1 1 -0 0 -0 -0 -1 -1 -1 -1 -1 -1 -1 -4 -5 -6 -5 -6 -6 -7 -8 -9
3 3 4 4 4 3 3 3 4 3 3 4 3 3 3 3 2 2 2 1 0 -1 -1 -1 -1 -1 -1 -0 -1 -1 -1 -3 -4 -6 -6 -6 -6 -6 -7 -7 -8 -9 -10
1 2 2 3 3 3 3 3 2 2 2 1 1 1 1 0 0 0 0 0 -1 -1 -1 -0 -1 -1 -1 -2 -2 -4 -5 -6 -6 -7 -7 -7 -7 -8 -9 -9 -10 -10 -11
-1 -0 0 1 1 2 2 2 2 1 1 1 1 0 0 0 1 0 0 -1 -1 -1 -1 -1 -2 -3 -4 -4 -5 -8 -7 -7 -8 -8 -9 -9 -9 -10 -10 -11 -12 -12 -12
-2 -2 -1 -1 0 0 0 0 0 -0 0 -0 0 -0 -1 -0 -0 -2 -2 -2 -2 -3 -4 -4 -6 -7 -7 -7 -8 -8 -8 -9 -9 -10 -10 -10 -11 -12 -12 -13 -13 -14 -14
-2 -3 -3 -4 -3 -3 -2 -1 0 -1 -0 -1 -1 -1 -2 -2 -2 -4 -4 -3 -6 -8 -8 -8 -8 -8 -8 -8 -9 -9 -9 -10 -10 -11 -12 -13 -13 -13 -13 -14 -14 -14 -15
-3 -4 -4 -4 -4 -4 -4 -5 -3 -3 -3 -2 -2 -3 -3 -5 -5 -8 -8 -7 -8 -8 -9 -9 -9 -9 -9 -10 -10 -11 -11 -12 -12 -13 -13 -13 -13 -14 -14 -15 -15 -16 -16
-4 -5 -5 -4 -4 -5 -5 -6 -5 -6 -5 -6 -6 -6 -7 -8 -8 -8 -9 -9 -9 -10 -10 -10 -11 -11 -11 -11 -12 -12 -13 -13 -13 -13 -14 -14 -14 -15 -16 -16 -17 -18 -18
-5 -6 -6 -6 -7 -7 -7 -7 -7 -7 -7 -7 -8 -8 -8 -9 -9 -10 -10 -11 -11 -11 -11 -12 -12 -12 -12 -13 -13 -13 -13 -14 -14 -15 -15 -16 -16 -17 -18 -18 -19 -20 -21
-8 -8 -8 -8 -9 -9 -9 -9 -9 -8 -9 -10 -10 -10 -10 -11 -11 -11 -11 -11 -11 -12 -12 -12 -13 -13 -13 -14 -14 -14 -15 -16 -16 -16 -17 -17 -18 -18 -19 -20 -21 -22 -23
-10 -10 -10 -10 -10 -10 -10 -10 -10 -10 -11 -11 -11 -11 -11 -11 -12 -12 -13 -13 -13 -13 -14 -13 -14 -14 -15 -15 -15 -16 -16 -17 -17 -18 -18 -19 -20 -20 -21 -22 -22 -23 -23
-12 -12 -12 -12 -12 -11 -11 -12 -12 -12 -12 -12 -12 -12 -12 -12 -13 -13 -13 -14 -14 -15 -15 -15 -16 -16 -16 -16 -17 -17 -18 -19 -19 -19 -20 -20 -21 -21 -22 -23 -23 -23 -24
-12 -12 -12 -12 -12 -12 -12 -12 -12 -12 -13 -13 -13 -14 -14 -14 -15 -15 -15 -15 -16 -16 -16 -16 -17 -17 -17 -18 -18 -19 -19 -20 -20 -21 -21 -21 -22 -22 -23 -23 -23 -24 -24
-13 -13 -13 -13 -13 -13 -13 -14 -14 -14 -14 -15 -15 -15 -15 -16 -16 -16 -16 -17 -17 -17 -17 -17 -18 -18 -19 -19 -20 -20 -21 -21 -21 -21 -22 -22 -23 -23 -23 -24 -24 -24 -24
-14 -14 -14 -15 -15 -15 -15 -15 -15 -16 -16 -16 -16 -17 -17 -17 -17 -17 -18 -18 -18 -18 -19 -19 -19 -20 -20 -21 -21 -21 -22 -22 -22 -22 -23 -23 -23 -24 -24 -24 -24 -24 -25

GFSGL_700_temp_081.txt.gz
Temp
7 6 6 6 6 6 6 6 5 5 5 5 4 3 3 2 1 -1 -0 -0 -1 -1 -2 -1 -1 -1 -1 -2 -2 -1 -1 -1 -1 -1 -1 -0 -1 -0 -0 -1 -1 -2 -2
7 7 6 6 6 6 6 6 6 5 5 5 5 5 5 4 3 2 2 1 -1 -1 -1 -1 -1 -1 -1 -1 -1 -2 -2 -1 -1 -1 -1 -1 -1 -1 -1 -1 -1 -2 -2
7 7 7 6 6 6 6 6 6 5 5 5 5 5 5 5 4 4 3 2 1 1 -0 -1 -0 -1 -1 -1 -1 -0 -1 -0 -1 -1 -1 -1 -1 -1 -1 -1 -1 -2 -2
6 7 7 7 6 6 6 6 6 5 5 5 5 5 5 4 4 4 4 3 3 3 3 3 3 2 2 1 -0 -0 -0 -1 -1 -1 -1 -1 -1 -1 -1 -1 -1 -1 -2
4 5 6 7 7 7 6 6 6 6 5 5 5 5 4 4 4 4 4 4 3 3 3 3 2 2 2 1 0 -0 -1 -1 -1 -1 -1 -1 -1 -1 -1 -1 -1 -2 -2
3 5 4 5 6 6 6 6 6 6 6 5 5 5 5 5 4 4 4 3 3 3 3 2 2 2 2 1 0 -1 -1 -1 -1 -1 -1 -1 -1 -1 -1 -1 -1 -2 -2
5 5 4 3 4 5 5 6 6 6 6 6 6 6 6 5 5 4 3 3 2 2 2 2 2 2 1 1 0 -0 -0 -1 -1 -1 -0 -0 -1 -1 -1 -1 -1 -2 -1
3 4 5 5 5 5 5 5 6 6 6 6 6 6 6 6 6 5 4 3 3 2 2 1 1 1 1 0 0 -0 -1 -1 -0 -0 -0 -1 -1 -1 -1 -2 -2 -2 -2
4 3 3 4 4 5 5 6 5 5 5 6 6 6 6 6 5 5 5 4 4 3 4 3 2 1 0 -1 -0 -0 -1 -1 -1 -0 -1 -1 -2 -1 -2 -1 -2 -2 -2
3 4 4 3 4 4 4 4 5 5 5 5 5 5 6 6 6 5 5 4 4 4 3 3 2 1 -0 -0 -1 -1 0 -0 -1 -1 -1 -1 -0 -0 -1 -2 -2 -3 -4
3 3 3 3 4 3 4 4 4 4 4 5 5 5 5 5 5 4 4 3 3 3 3 2 2 0 -0 -0 -0 -1 -1 -1 0 -1 -0 -1 -1 -2 -2 -2 -4 -6 -6
2 2 3 3 3 3 3 4 3 3 3 4 3 3 3 3 3 3 2 3 1 2 2 1 0 -0 -1 -1 -0 -0 -0 -0 -0 -0 -1 -2 -2 -4 -4 -6 -6 -7 -7
1 1 2 2 2 3 3 3 3 2 2 3 2 2 2 1 1 1 2 1 2 1 0 0 0 -0 0 -1 -0 -1 -1 -1 -2 -2 -2 -4 -6 -6 -7 -7 -7 -7 -8
0 -0 -1 1 2 2 2 2 2 1 1 1 0 0 0 0 1 2 0 1 1 0 -0 0 -0 0 -0 -1 -2 -2 -3 -4 -6 -6 -7 -8 -8 -8 -8 -8 -8 -8 -8
-1 -2 -2 -2 -2 -1 -1 -1 0 -0 0 1 1 1 1 1 1 1 -0 -0 0 -0 -0 -1 -3 -3 -3 -2 -4 -6 -8 -9 -8 -8 -8 -8 -8 -8 -8 -9 -9 -9 -10
-3 -3 -3 -2 -3 -2 -1 -2 -1 -0 -0 0 0 0 -1 -0 0 0 -0 -0 -3 -2 -3 -4 -6 -6 -8 -8 -8 -9 -9 -9 -9 -9 -9 -9 -9 -10 -10 -10 -10 -11 -12
-4 -3 -3 -3 -3 -4 -4 -3 -2 -2 -3 -4 -3 -0 -3 -1 -5 -1 -3 -4 -6 -6 -8 -8 -9 -9 -8 -9 -9 -9 -9 -10 -10 -10 -10 -10 -11 -11 -12 -12 -13 -13 -14
-5 -4 -4 -3 -5 -5 -5 -5 -5 -4 -4 -5 -6 -7 -5 -8 -8 -9 -8 -7 -8 -9 -9 -9 -9 -9 -9 -9 -10 -10 -10 -10 -10 -11 -11 -12 -13 -13 -13 -14 -14 -15 -15
-6 -5 -5 -5 -6 -6 -7 -7 -7 -7 -7 -7 -8 -8 -9 -8 -9 -9 -10 -9 -9 -9 -9 -10 -10 -10 -10 -10 -11 -11 -11 -12 -13 -13 -13 -13 -14 -14 -15 -16 -16 -16 -17
-8 -8 -8 -8 -8 -9 -9 -9 -9 -9 -9 -10 -10 -10 -10 -10 -10 -11 -11 -11 -10 -10 -11 -11 -11 -12 -12 -12 -12 -12 -13 -13 -14 -14 -15 -15 -16 -16 -17 -17 -18 -18 -19
-9 -10 -10 -10 -10 -10 -10 -11 -11 -11 -11 -11 -11 -11 -11 -11 -12 -12 -12 -12 -12 -12 -12 -13 -13 -13 -13 -13 -14 -14 -14 -15 -15 -16 -16 -17 -17 -18 -18 -18 -19 -20 -20
-11 -11 -11 -12 -12 -12 -12 -12 -12 -12 -12 -13 -13 -13 -13 -13 -13 -13 -13 -13 -13 -13 -13 -14 -14 -14 -15 -15 -15 -16 -16 -16 -17 -17 -18 -18 -18 -19 -19 -20 -21 -21 -22
-12 -12 -12 -13 -13 -12 -12 -13 -13 -13 -13 -13 -13 -13 -14 -14 -14 -14 -15 -15 -15 -15 -15 -15 -16 -16 -16 -16 -17 -17 -17 -18 -18 -18 -19 -19 -20 -20 -21 -21 -21 -22 -22
-13 -13 -13 -13 -13 -13 -13 -13 -13 -14 -14 -14 -14 -15 -15 -15 -15 -15 -15 -16 -15 -16 -16 -16 -17 -17 -17 -17 -17 -18 -18 -19 -19 -20 -20 -20 -21 -21 -21 -22 -22 -22 -22
-13 -13 -13 -14 -14 -14 -14 -14 -15 -15 -15 -15 -15 -16 -16 -16 -16 -16 -16 -17 -17 -17 -17 -17 -18 -18 -18 -18 -18 -19 -20 -20 -20 -21 -21 -21 -22 -22 -22 -22 -23 -23 -23
-15 -15 -15 -15 -15 -15 -16 -16 -16 -16 -16 -16 -17 -17 -17 -17 -17 -17 -18 -18 -18 -18 -18 -18 -18 -18 -19 -19 -20 -20 -21 -21 -21 -22 -22 -22 -23 -23 -23 -23 -23 -23 -23

GFSGL_700_temp_084.txt.gz
Temp
7 7 7 6 6 6 6 5 5 5 5 4 4 3 2 1 0 -0 0 -0 -1 -0 -1 -1 -1 -1 -1 -1 -1 -1 -2 -1 -1 -1 -1 -1 -1 -1 -1 -1 -1 -1 -1
6 6 6 6 6 6 6 6 5 5 5 5 5 5 4 4 3 2 2 -0 -0 -1 -1 -1 -1 -1 -1 -1 -1 -1 -1 -1 -1 -1 -1 -1 -1 -1 -1 -1 -1 -1 -1
5 5 5 6 6 6 6 6 5 5 5 5 5 5 5 5 4 4 3 2 2 1 0 -0 -0 -1 -1 -1 -1 -1 -1 -1 -1 -1 -1 -2 -2 -1 -1 -1 -1 -1 -1
4 4 4 5 5 6 6 6 6 5 5 5 5 5 5 4 4 4 4 3 3 3 2 2 2 1 1 -0 -1 -1 -1 -1 -1 -1 -1 -1 -1 -1 -1 -1 -1 -1 -1
5 5 5 3 4 4 5 5 5 5 5 5 5 5 4 4 4 4 4 4 3 3 3 3 3 3 2 2 1 1 -0 -1 -0 -1 -0 0 -0 -1 -1 -1 -1 -1 -1
5 4 4 4 3 3 3 4 5 5 5 5 5 5 5 4 4 4 4 3 3 3 3 3 3 2 2 2 2 1 0 0 -0 -1 -0 -1 -0 -1 -1 -1 -1 -1 -1
4 5 4 4 4 4 5 4 4 5 5 5 5 5 6 5 5 4 3 3 3 3 3 3 2 2 2 2 1 1 1 0 0 0 -0 -1 -1 -1 -1 -1 -1 -1 -1
3 3 4 4 4 5 5 4 4 4 4 4 4 5 5 6 5 5 4 3 3 3 3 2 2 2 2 1 1 1 0 1 1 0 0 -0 -0 -0 -1 -1 -1 -1 -1
2 3 3 3 3 3 4 4 4 4 4 5 4 4 4 5 5 6 5 4 4 4 4 3 3 3 2 2 1 0 -0 -1 -1 -1 -1 -1 -0 -1 -1 -1 -1 -1 -1
3 3 3 3 3 3 3 4 4 4 4 4 4 4 3 3 4 4 4 4 4 4 4 4 4 3 2 2 1 0 -0 -0 -0 0 -0 -1 -1 -1 -1 -1 -2 -2 -1
2 2 2 2 3 3 3 3 3 4 4 4 4 3 3 3 3 3 3 4 4 4 4 3 2 2 1 1 0 0 1 -1 -0 -0 -1 -0 -1 -1 -1 -2 -2 -2 -2
2 2 2 2 3 3 3 3 3 3 3 3 3 3 3 2 2 1 2 2 2 2 1 2 0 0 1 0 -0 -0 -1 -1 -0 -1 -1 -1 -1 -1 -2 -4 -6 -5 -6
1 1 1 1 2 2 2 2 2 2 2 3 2 2 2 2 2 1 2 1 1 1 1 0 0 1 1 0 -0 0 -0 -0 0 -0 -1 -2 -4 -5 -5 -7 -8 -8 -8
0 0 0 1 1 1 1 0 0 1 1 1 1 0 0 0 1 2 1 1 1 1 1 -0 -0 0 -1 0 0 0 -0 -2 -4 -6 -6 -7 -8 -8 -8 -8 -8 -8 -8
-0 -0 -0 -0 -1 -1 -1 -1 -2 -2 -1 -2 -1 -1 -0 -1 -0 0 1 -1 0 -0 -1 -1 -0 -1 -1 -2 -5 -6 -7 -7 -8 -8 -9 -9 -9 -9 -9 -9 -9 -9 -9
-1 -1 -1 -2 -3 -3 -3 -2 -2 -2 -3 -3 -2 -2 -2 -2 -1 -1 -5 -4 -1 -3 -2 -4 -5 -6 -5 -6 -7 -7 -8 -9 -9 -9 -9 -9 -9 -9 -10 -9 -10 -10 -10
-2 -2 -3 -3 -3 -3 -3 -3 -3 -3 -4 -4 -5 -5 -4 -4 -5 -5 -6 -7 -7 -7 -7 -7 -8 -9 -9 -9 -9 -10 -10 -9 -9 -10 -10 -10 -10 -10 -10 -11 -11 -11 -12
-5 -5 -5 -5 -5 -4 -5 -5 -5 -5 -5 -6 -7 -7 -8 -8 -8 -9 -9 -9 -9 -10 -10 -9 -9 -10 -10 -11 -10 -11 -10 -10 -10 -11 -11 -11 -12 -12 -12 -12 -13 -13 -14
-6 -7 -7 -7 -7 -7 -7 -8 -7 -8 -8 -8 -9 -9 -9 -10 -10 -10 -10 -10 -11 -10 -11 -11 -11 -11 -10 -11 -12 -12 -12 -12 -12 -13 -13 -13 -13 -13 -13 -14 -14 -15 -15
-8 -8 -9 -9 -9 -9 -10 -9 -9 -10 -10 -10 -10 -11 -10 -11 -11 -11 -12 -12 -12 -12 -12 -12 -12 -12 -12 -12 -13 -13 -13 -13 -13 -14 -14 -14 -15 -15 -15 -16 -16 -17 -17
-10 -10 -10 -11 -11 -11 -11 -11 -11 -11 -12 -12 -12 -12 -12 -12 -12 -12 -12 -12 -13 -13 -13 -13 -13 -13 -14 -14 -14 -14 -14 -15 -15 -15 -15 -15 -16 -16 -17 -18 -18 -18 -19
-12 -12 -12 -12 -12 -12 -12 -12 -12 -12 -12 -13 -13 -13 -13 -13 -13 -13 -13 -13 -13 -13 -14 -14 -14 -15 -15 -15 -15 -15 -16 -16 -16 -16 -17 -17 -18 -18 -19 -19 -19 -20 -20
-13 -13 -12 -12 -12 -12 -12 -12 -13 -13 -13 -13 -13 -13 -14 -14 -14 -14 -14 -15 -15 -15 -15 -16 -16 -16 -16 -16 -17 -17 -17 -18 -18 -19 -19 -19 -19 -20 -20 -20 -21 -21 -21
-13 -13 -13 -13 -13 -13 -13 -14 -14 -14 -14 -14 -15 -15 -15 -15 -15 -15 -16 -16 -16 -16 -16 -17 -17 -17 -17 -18 -18 -18 -19 -19 -19 -20 -20 -20 -21 -21 -21 -21 -22 -22 -22
-14 -14 -14 -14 -14 -15 -15 -15 -15 -15 -15 -16 -16 -16 -16 -16 -17 -17 -17 -17 -18 -18 -18 -18 -18 -18 -18 -18 -19 -19 -19 -20 -20 -20 -21 -21 -22 -22 -22 -22 -22 -22 -22
-15 -16 -16 -16 -16 -16 -16 -16 -16 -17 -17 -17 -17 -17 -17 -17 -18 -18 -18 -18 -19 -19 -19 -19 -19 -20 -20 -20 -20 -21 -21 -21 -21 -22 -22 -22 -22 -22 -23 -23 -23 -23 -23

GFSGL_700_temp_087.txt.gz
Temp
6 6 6 6 6 6 6 5 5 4 4 3 3 2 1 0 1 0 -0 -0 -1 -1 -2 -2 -2 -2 -2 -2 -1 -1 -0 -1 -2 -1 -1 -0 -1 -1 -1 -1 -1 -1 -1
5 5 5 5 6 6 6 5 5 5 5 4 4 4 3 3 2 0 -1 -1 -1 -1 -1 -1 -1 -2 -1 -2 -2 -1 -1 -1 -1 -2 -1 -2 -1 -1 -1 -1 -1 -1 -1
4 4 5 5 5 5 5 5 5 5 5 5 5 5 4 4 4 3 3 2 1 1 0 -1 -1 -1 -2 -2 -2 -2 -1 -1 -2 -2 -1 -1 -1 -2 -1 -1 -1 -2 -2
4 4 5 5 5 4 4 5 5 4 5 5 5 5 5 4 4 4 4 3 3 3 2 2 2 1 1 0 -1 -1 -1 -1 -2 -2 -2 -2 -2 -2 -2 -2 -1 -1 -1
4 4 4 4 4 4 5 5 4 4 4 4 4 4 4 4 4 4 4 4 4 3 3 3 3 3 2 1 0 1 -0 -1 -1 -2 -2 -2 -1 -1 -2 -1 -0 -0 -1
5 4 4 4 4 3 3 4 4 5 5 4 4 4 4 4 4 4 3 3 4 3 3 3 3 3 3 3 2 2 1 1 1 -0 -1 -1 -1 -0 -1 -0 -0 -1 -0
4 4 4 4 4 4 4 4 4 4 3 4 4 4 4 4 4 4 4 3 3 3 3 3 3 3 3 3 2 2 2 1 1 1 1 1 0 0 -0 -1 -0 -0 -0
3 3 3 4 4 4 5 4 5 4 4 4 3 3 4 4 4 4 3 3 3 3 3 3 3 3 3 2 2 2 2 1 1 1 1 1 1 1 0 -0 -0 -1 -1
2 2 2 3 3 3 4 4 4 4 4 4 4 4 3 3 3 2 2 2 2 2 2 3 3 3 3 2 2 2 1 1 1 1 1 0 -0 -0 -0 -1 -1 -1 -1
1 2 2 2 2 2 2 3 3 3 4 4 4 4 4 3 3 3 3 2 2 1 1 1 1 3 3 3 2 2 2 1 0 0 0 -0 -0 -1 -1 -1 -1 -1 -1
2 2 2 2 2 2 2 2 2 2 3 3 3 3 3 4 4 3 3 2 2 1 1 1 1 1 2 3 2 -0 1 1 -1 0 -1 -0 -0 -0 -1 -1 -1 -1 -1
1 1 2 2 2 2 2 2 2 2 2 2 3 2 2 3 3 3 2 2 1 1 2 1 1 1 1 1 1 0 -0 1 1 -1 -0 -1 -1 -1 -1 -1 -1 -1 -2
0 1 1 1 1 1 2 2 2 2 2 2 1 2 2 2 2 2 2 1 1 0 1 0 1 0 0 1 1 1 0 0 -1 -0 -0 -0 -1 -2 -3 -5 -5 -6 -7
0 0 1 0 0 1 1 1 0 -0 -1 -1 -1 -1 -1 -0 1 -1 -1 -0 -0 -0 0 1 0 -0 0 -0 -1 -1 -1 -1 -2 -4 -6 -7 -7 -7 -7 -8 -8 -8 -8
-0 -0 0 0 0 0 -0 -1 -1 -2 -2 -2 -2 -2 -2 -2 -2 -1 -2 -2 -1 -1 -1 -1 -2 -2 -1 -1 -3 -2 -3 -4 -6 -6 -7 -8 -8 -8 -9 -9 -9 -9 -9
-1 -1 -1 -1 -1 -1 -2 -2 -3 -3 -3 -3 -3 -3 -3 -4 -5 -4 -4 -3 -3 -5 -4 -5 -5 -5 -5 -5 -6 -9 -8 -8 -9 -10 -10 -10 -10 -10 -10 -10 -10 -10 -10
-2 -2 -3 -3 -3 -3 -4 -4 -4 -4 -4 -4 -4 -4 -4 -4 -5 -5 -5 -7 -8 -8 -8 -8 -9 -9 -9 -9 -10 -10 -11 -10 -11 -11 -10 -10 -10 -11 -10 -10 -11 -11 -12
-4 -4 -5 -5 -5 -5 -6 -6 -6 -6 -6 -6 -6 -6 -6 -6 -7 -7 -8 -8 -9 -10 -10 -10 -10 -10 -11 -11 -11 -11 -11 -11 -12 -11 -12 -12 -11 -11 -11 -12 -13 -13 -13
-6 -6 -6 -7 -7 -7 -7 -7 -8 -8 -8 -8 -8 -8 -8 -9 -9 -10 -10 -10 -11 -11 -11 -11 -11 -11 -11 -12 -12 -12 -12 -12 -12 -12 -13 -13 -13 -13 -14 -14 -14 -15 -15
-8 -8 -9 -9 -9 -9 -10 -10 -10 -10 -10 -10 -10 -10 -10 -11 -11 -11 -12 -12 -12 -12 -12 -12 -12 -12 -12 -12 -13 -13 -13 -13 -13 -14 -14 -14 -14 -14 -15 -15 -15 -16 -16
-10 -10 -11 -11 -11 -11 -11 -11 -11 -11 -11 -12 -12 -12 -12 -12 -12 -12 -12 -12 -13 -13 -13 -13 -13 -13 -13 -14 -13 -14 -14 -14 -15 -15 -15 -15 -15 -16 -16 -17 -17 -18 -18
-12 -12 -12 -12 -12 -12 -12 -12 -12 -12 -12 -12 -12 -12 -13 -13 -13 -13 -13 -13 -13 -14 -14 -14 -14 -14 -14 -15 -15 -15 -15 -15 -16 -16 -16 -17 -17 -17 -18 -18 -18 -19 -19
-13 -12 -12 -12 -12 -12 -13 -13 -13 -13 -13 -13 -13 -14 -14 -14 -14 -14 -15 -15 -15 -15 -16 -16 -16 -16 -16 -16 -16 -17 -17 -17 -17 -17 -17 -18 -18 -18 -19 -19 -19 -20 -20
-13 -13 -13 -13 -13 -13 -13 -14 -14 -14 -14 -15 -15 -15 -15 -15 -16 -16 -16 -16 -16 -17 -17 -17 -17 -17 -17 -18 -18 -18 -18 -18 -18 -19 -19 -19 -20 -20 -20 -21 -21 -21 -22
-14 -14 -14 -14 -15 -15 -15 -15 -15 -16 -16 -16 -16 -16 -16 -17 -17 -17 -17 -17 -18 -18 -18 -18 -18 -18 -18 -18 -19 -19 -19 -19 -19 -20 -20 -21 -21 -21 -22 -22 -22 -22 -22
-15 -15 -16 -16 -16 -16 -16 -17 -17 -17 -17 -17 -17 -17 -17 -18 -18 -18 -18 -18 -19 -19 -19 -19 -19 -20 -20 -20 -20 -20 -20 -21 -21 -21 -21 -22 -22 -22 -22 -23 -23 -23 -23

GFSGL_700_temp_090.txt.gz
Temp
6 6 6 6 5 5 5 5 4 4 4 3 2 2 1 1 1 1 1 0 -0 -0 -0 -0 -0 -0 -1 -1 -1 -1 -1 -2 -2 -1 -1 -1 -2 -1 -1 -2 -2 -1 -1
5 5 5 5 5 5 5 4 4 4 4 4 3 3 2 2 1 1 0 0 0 0 -0 -0 -0 -1 -1 -1 -1 -1 -1 -2 -2 -2 -1 -1 -1 -2 -2 -2 -2 -2 -1
4 4 5 5 5 5 5 5 4 4 4 4 4 4 4 3 3 2 2 1 1 1 1 0 0 -0 -1 -1 -2 -2 -2 -2 -2 -2 -2 -2 -2 -1 -2 -2 -2 -2 -2
4 4 5 5 5 5 5 5 5 5 4 4 4 3 3 3 3 3 3 3 3 3 2 2 1 1 1 -0 -1 -1 -2 -2 -2 -2 -2 -2 -2 -2 -2 -1 -1 -1 -1
4 4 4 4 4 4 5 5 4 5 5 4 4 4 4 4 4 3 3 3 2 2 2 2 2 2 2 1 -0 0 -0 -1 -1 -1 -1 -1 -0 -0 -0 -1 -1 -1 -1
3 3 4 3 3 4 4 4 5 3 3 4 4 4 4 4 4 4 4 4 3 3 3 2 2 2 2 2 1 1 0 0 0 0 0 0 1 1 0 0 0 0 1
4 4 4 3 3 4 4 4 4 4 3 3 3 3 3 3 3 3 3 3 3 3 3 3 3 3 3 3 3 2 2 1 1 1 1 2 2 1 1 1 1 1 1
3 3 3 3 4 4 4 4 4 3 3 3 3 3 3 3 3 3 3 2 2 2 2 3 3 3 3 3 3 2 2 2 2 1 1 1 1 1 1 1 1 0 1
2 2 2 2 3 3 3 3 3 3 4 3 3 3 3 3 2 3 3 1 0 1 1 1 1 0 1 0 1 2 2 2 1 1 1 1 1 1 0 -0 0 -1 -1
1 1 1 1 1 2 2 2 2 3 3 3 3 3 3 3 3 3 2 2 2 2 2 1 0 1 2 3 1 -0 1 1 1 0 0 -0 0 0 0 0 -0 -1 -1
0 1 1 1 1 1 1 1 2 2 2 2 3 3 3 3 3 3 3 3 2 2 2 1 1 1 1 1 1 0 -0 0 1 -0 -1 0 -0 -1 1 -0 -1 -0 -0
0 1 1 1 1 1 1 1 1 1 1 2 2 2 2 3 3 3 3 2 2 2 1 0 -0 0 1 1 0 -0 -1 -1 -0 -1 -1 -2 -2 -1 -1 -2 -1 -1 -1
-0 0 1 1 1 1 1 1 1 1 1 1 1 1 1 1 1 1 1 1 1 1 1 -0 -1 -0 -1 -0 0 0 -1 -1 -1 -1 -1 -1 -2 -3 -3 -3 -2 -3 -4
-1 -1 -1 -1 -0 -0 0 0 0 1 0 -0 -1 -1 -1 -0 -0 0 0 0 -0 -0 -1 -2 -2 -2 -1 -1 -1 -1 -2 -2 -1 -3 -3 -5 -4 -4 -7 -7 -7 -7 -8
-2 -2 -1 -1 -1 -1 -1 -1 -1 -2 -2 -2 -2 -2 -2 -2 -1 -1 -1 -1 -1 -2 -3 -3 -3 -2 -3 -3 -3 -5 -4 -5 -6 -5 -7 -8 -8 -9 -9 -10 -10 -10 -10
-3 -3 -3 -3 -2 -2 -3 -3 -3 -3 -3 -4 -4 -3 -3 -4 -4 -4 -4 -4 -4 -5 -5 -6 -6 -5 -5 -6 -7 -8 -8 -9 -10 -10 -10 -10 -10 -10 -11 -10 -11 -11 -10
-4 -4 -4 -4 -5 -4 -4 -5 -5 -5 -5 -6 -5 -5 -5 -6 -6 -6 -7 -7 -7 -8 -8 -8 -8 -8 -8 -8 -8 -10 -11 -11 -11 -11 -11 -11 -11 -11 -11 -11 -11 -11 -11
-6 -6 -6 -7 -7 -7 -7 -7 -7 -7 -7 -7 -8 -8 -8 -8 -8 -9 -9 -9 -9 -9 -9 -9 -10 -10 -10 -10 -11 -11 -11 -11 -11 -12 -12 -12 -11 -12 -11 -12 -12 -12 -12
-8 -9 -9 -9 -9 -9 -9 -9 -9 -9 -9 -9 -10 -10 -10 -10 -10 -10 -10 -10 -10 -10 -10 -10 -11 -11 -11 -11 -11 -12 -12 -12 -12 -12 -12 -13 -13 -13 -13 -13 -13 -13 -14
-10 -10 -10 -10 -10 -10 -10 -10 -10 -10 -11 -11 -11 -11 -11 -11 -11 -11 -11 -11 -11 -12 -12 -11 -12 -12 -12 -12 -12 -12 -13 -13 -13 -13 -14 -14 -14 -14 -14 -14 -15 -15 -15
-11 -11 -12 -12 -12 -12 -12 -12 -12 -12 -12 -11 -11 -11 -12 -12 -12 -12 -12 -12 -12 -12 -12 -13 -13 -13 -13 -13 -14 -14 -14 -14 -15 -15 -15 -15 -15 -15 -16 -16 -16 -16 -17
-13 -13 -13 -13 -13 -13 -12 -12 -12 -12 -12 -12 -12 -12 -12 -12 -13 -13 -13 -13 -13 -13 -14 -14 -14 -14 -14 -14 -15 -15 -15 -15 -15 -16 -16 -16 -16 -16 -16 -17 -17 -17 -18
-14 -14 -13 -13 -13 -13 -13 -13 -13 -13 -13 -13 -13 -14 -14 -14 -14 -14 -14 -14 -15 -15 -15 -15 -15 -15 -15 -16 -16 -16 -16 -16 -17 -17 -17 -17 -17 -17 -18 -18 -18 -19 -19
-14 -14 -14 -14 -14 -14 -14 -14 -14 -14 -14 -14 -15 -15 -15 -15 -15 -15 -16 -16 -16 -16 -16 -16 -17 -17 -17 -17 -17 -17 -18 -18 -18 -18 -18 -18 -19 -19 -19 -20 -20 -20 -21
-15 -15 -15 -15 -15 -15 -15 -15 -15 -15 -16 -16 -16 -16 -16 -17 -17 -17 -17 -17 -17 -17 -18 -18 -18 -18 -18 -19 -19 -19 -19 -19 -19 -19 -20 -20 -20 -20 -21 -21 -21 -22 -22
-16 -16 -16 -16 -16 -16 -17 -17 -17 -17 -17 -17 -17 -17 -17 -17 -18 -18 -18 -18 -18 -18 -19 -19 -19 -19 -20 -20 -20 -20 -20 -20 -21 -21 -21 -21 -21 -22 -22 -22 -22 -23 -23

GFSGL_700_temp_093.txt.gz
Temp
5 5 5 5 5 5 5 5 5 4 4 3 2 1 1 0 0 0 1 -0 0 0 -0 -1 -1 -1 -1 -1 -1 -1 -1 -1 -2 -0 -1 -2 -2 -2 -1 -1 -2 -1 -1
5 5 5 5 5 5 5 5 4 4 4 3 3 2 2 1 1 1 1 1 0 0 -1 -0 -1 -1 -0 -1 -1 -1 -1 -1 -2 -1 -2 -2 -2 -2 -2 -2 -1 -1 -1
4 4 5 5 5 5 5 5 5 4 4 4 4 3 3 2 2 2 2 2 1 1 0 -0 -0 -0 -0 -0 -1 -1 -1 -2 -2 -2 -1 -2 -2 -1 -1 -1 -1 -2 -1
4 4 4 4 5 5 5 5 5 5 5 4 4 4 4 3 3 3 3 2 2 2 1 1 1 1 1 1 0 0 -0 -1 -1 -2 -1 -1 -1 -1 -2 -1 -0 -1 -1
4 4 4 4 4 4 4 5 5 5 4 4 4 4 4 4 4 4 3 3 3 3 2 2 2 2 2 1 1 1 0 -0 -0 -1 -1 -1 -0 -0 -0 -0 -1 0 -0
4 3 1 2 3 3 3 4 4 4 4 4 4 3 4 4 4 3 3 3 3 3 3 3 3 3 3 3 2 2 1 1 1 0 -0 -1 -0 0 0 -0 0 0 2
2 1 1 1 2 2 3 2 3 4 4 4 4 4 3 3 4 4 3 3 3 3 3 3 3 3 3 2 2 2 2 1 0 0 1 1 1 1 1 1 1 1 2
0 0 1 1 0 1 1 2 3 3 3 3 3 3 3 3 3 3 3 2 2 2 2 2 2 1 1 1 1 1 1 0 0 0 1 1 0 -0 1 1 1 1 1
-2 -2 -1 1 2 2 2 2 2 3 3 3 3 3 3 3 3 3 3 3 3 2 2 2 2 1 1 1 1 1 1 1 1 0 0 0 1 0 0 0 -0 -0 -0
-0 0 -0 1 2 2 2 2 2 2 2 2 2 2 2 2 3 3 2 2 2 2 2 2 2 1 1 1 1 0 1 0 0 1 -0 0 -0 -0 -0 -0 -1 -1 -1
-1 -1 -0 0 1 1 1 1 1 2 2 2 2 2 2 2 2 2 2 2 2 2 2 2 2 2 1 1 -0 0 0 1 1 0 0 -0 -1 -1 -1 -1 -1 -1 -1
-0 -0 -0 0 0 0 0 0 0 1 1 2 2 2 2 2 2 2 2 2 2 2 2 2 2 2 2 1 -0 -1 -1 -1 -0 -0 -1 -1 -1 -1 -2 -2 -2 -2 -2
-1 -1 -1 -0 -0 -0 0 0 0 0 1 1 1 1 1 1 1 1 1 1 1 1 1 1 2 2 1 1 -1 -1 -2 -2 -2 -2 -1 -2 -2 -2 -3 -3 -4 -5 -4
-1 -1 -1 -1 -1 -0 -0 -0 -0 0 0 0 0 -0 -0 -1 -1 -1 -1 -1 -1 -1 -1 -1 -0 -0 -0 -0 -1 -2 -3 -3 -3 -3 -3 -3 -4 -5 -6 -7 -8 -9 -8
-2 -2 -2 -2 -2 -1 -1 -1 -1 -1 -1 -2 -2 -2 -3 -2 -2 -3 -2 -2 -2 -2 -2 -2 -2 -2 -2 -3 -3 -4 -5 -5 -6 -7 -7 -7 -8 -8 -9 -9 -10 -10 -10
-4 -4 -3 -3 -3 -3 -3 -3 -3 -3 -3 -3 -4 -4 -4 -4 -4 -4 -4 -4 -4 -4 -4 -4 -5 -5 -5 -5 -6 -7 -8 -8 -9 -9 -10 -10 -10 -10 -10 -10 -11 -11 -11
-4 -4 -4 -4 -4 -4 -4 -4 -5 -5 -5 -5 -6 -6 -5 -5 -5 -5 -5 -6 -6 -7 -7 -7 -7 -8 -8 -8 -8 -9 -9 -10 -10 -11 -11 -11 -11 -11 -11 -11 -11 -11 -11
-6 -6 -6 -6 -6 -6 -6 -6 -7 -7 -7 -8 -8 -8 -8 -8 -8 -8 -8 -8 -9 -9 -9 -10 -10 -10 -10 -11 -11 -11 -11 -11 -11 -12 -12 -11 -11 -12 -11 -12 -12 -12 -12
-8 -8 -8 -8 -8 -8 -8 -8 -9 -9 -9 -10 -10 -10 -10 -10 -10 -10 -10 -10 -10 -11 -11 -11 -11 -11 -11 -12 -12 -12 -12 -12 -12 -12 -12 -12 -13 -13 -13 -13 -13 -14 -14
-9 -9 -9 -10 -10 -10 -11 -11 -11 -11 -11 -11 -11 -11 -11 -11 -11 -11 -11 -11 -12 -12 -12 -12 -12 -12 -12 -13 -13 -13 -13 -13 -13 -14 -14 -14 -14 -14 -14 -15 -15 -15 -15
-11 -11 -11 -12 -12 -12 -12 -12 -12 -12 -12 -12 -12 -12 -12 -12 -12 -13 -13 -13 -13 -13 -13 -13 -13 -13 -14 -14 -14 -14 -14 -15 -15 -15 -15 -15 -15 -15 -16 -16 -16 -16 -16
-13 -13 -13 -13 -13 -13 -13 -13 -13 -13 -13 -13 -13 -13 -14 -14 -14 -14 -14 -14 -14 -14 -14 -14 -14 -15 -15 -15 -15 -15 -16 -16 -16 -16 -16 -16 -16 -16 -17 -17 -17 -17 -18
-14 -15 -14 -14 -14 -14 -14 -14 -14 -14 -14 -14 -14 -14 -15 -15 -15 -15 -15 -15 -15 -16 -16 -15 -16 -16 -16 -16 -16 -16 -16 -16 -17 -17 -17 -17 -17 -17 -18 -18 -18 -18 -19
-15 -16 -15 -15 -15 -15 -15 -15 -15 -15 -15 -15 -16 -16 -16 -16 -16 -16 -17 -17 -17 -17 -17 -17 -17 -17 -17 -17 -17 -17 -17 -17 -18 -18 -18 -18 -18 -18 -19 -19 -19 -19 -19
-16 -16 -16 -16 -16 -16 -16 -16 -16 -16 -16 -17 -17 -17 -17 -17 -17 -17 -17 -17 -18 -18 -18 -18 -18 -18 -18 -18 -18 -19 -19 -19 -19 -19 -19 -19 -19 -20 -20 -20 -20 -20 -21
-17 -17 -17 -17 -17 -17 -17 -17 -18 -18 -18 -18 -18 -18 -18 -18 -18 -18 -19 -19 -19 -19 -19 -19 -19 -19 -19 -19 -20 -20 -20 -20 -20 -20 -20 -21 -21 -21 -21 -21 -21 -22 -22

GFSGL_700_temp_096.txt.gz
Temp
7 6 5 6 6 6 5 5 5 4 4 3 3 2 2 2 2 1 1 2 1 0 1 0 0 -0 -0 -0 -1 -1 -1 -2 -1 -1 -1 -1 -2 -1 -1 -1 -1 -2 -2
6 5 5 5 6 5 5 5 5 5 4 4 3 3 2 1 1 1 1 1 1 1 1 0 0 -0 -0 -0 -0 -0 -1 -1 -1 -1 -1 -1 -1 -1 -1 -1 -1 -1 -1
6 5 5 5 5 5 5 5 5 5 4 4 4 3 3 2 2 2 1 1 1 1 0 1 -0 0 0 -0 -0 -0 -0 -1 -1 -1 -0 -0 -0 0 -0 0 0 -0 -0
5 4 5 4 5 5 5 5 5 5 4 4 4 3 3 3 2 2 2 2 2 2 1 1 1 1 1 0 0 0 0 0 0 0 1 1 0 1 0 1 1 1 1
4 4 3 3 4 4 4 4 4 4 4 4 4 4 4 3 2 3 3 3 3 3 3 3 2 2 2 1 0 1 1 1 1 1 1 1 2 1 1 0 -0 0 0
3 2 3 4 4 4 4 4 4 4 4 4 4 4 3 3 4 4 4 4 3 3 3 3 3 3 2 2 2 2 2 1 0 1 1 0 2 2 1 1 0 0 1
2 2 2 3 3 2 2 3 3 3 4 4 4 4 4 4 4 4 3 3 3 3 3 3 2 1 1 1 1 1 1 1 1 1 1 1 0 1 1 1 1 0 0
2 2 2 2 2 1 1 1 1 2 2 3 3 3 3 3 3 3 3 2 2 2 1 2 2 2 2 2 2 2 1 1 1 1 1 0 -0 -0 -0 0 0 0 -0
0 1 1 1 1 0 -0 1 1 1 1 2 2 2 2 2 2 2 2 2 2 2 2 2 2 2 2 2 1 1 1 0 1 0 0 -0 0 0 1 0 0 -0 -0
-3 -1 -1 -2 0 -1 -0 -0 -0 -0 -0 0 1 2 2 2 2 2 2 2 2 2 2 2 2 2 2 2 2 1 1 0 0 -0 0 1 1 0 0 0 0 -1 -0
-3 -3 -3 -2 -2 -2 -1 0 0 1 1 1 1 1 1 1 2 2 2 2 2 2 2 2 2 2 2 2 2 2 1 0 -0 0 0 0 -0 -0 -0 -0 -0 -1 -1
-4 -4 -1 -1 -0 -1 -0 -0 0 1 1 1 1 0 1 1 1 1 1 1 1 1 1 1 1 1 1 1 1 1 0 -0 -1 -1 -1 -2 -1 -1 -2 -2 -2 -2 -2
-2 -2 -1 -1 -1 -0 -1 -1 -0 -0 0 0 0 0 0 0 0 1 0 0 0 0 0 1 1 1 1 1 1 1 0 -0 -1 -2 -2 -2 -3 -3 -3 -4 -4 -5 -5
-2 -3 -2 -2 -1 -1 -1 -1 -1 -1 -1 -1 -1 -1 -1 -1 -1 -1 -1 -1 -1 -1 -1 -1 -1 -1 -1 -1 -1 -1 -1 -1 -2 -3 -4 -4 -5 -5 -5 -6 -7 -7 -8
-3 -3 -3 -3 -2 -2 -2 -2 -3 -2 -2 -2 -2 -3 -2 -2 -3 -3 -3 -2 -2 -3 -3 -3 -3 -3 -3 -3 -3 -3 -4 -4 -5 -5 -6 -6 -7 -7 -8 -8 -9 -9 -9
-3 -3 -3 -3 -3 -4 -3 -3 -3 -4 -3 -4 -3 -4 -4 -4 -4 -4 -4 -4 -4 -4 -5 -5 -5 -5 -5 -5 -6 -6 -6 -7 -8 -8 -8 -9 -9 -9 -10 -10 -10 -10 -10
-5 -5 -5 -5 -5 -5 -4 -4 -5 -5 -5 -5 -5 -6 -6 -6 -6 -6 -6 -6 -6 -6 -6 -6 -7 -7 -7 -8 -8 -8 -8 -8 -9 -9 -9 -10 -10 -10 -10 -11 -11 -11 -11
-6 -6 -7 -7 -6 -6 -6 -6 -6 -6 -7 -7 -7 -7 -7 -7 -7 -7 -7 -7 -8 -8 -8 -9 -9 -8 -9 -9 -9 -9 -9 -10 -10 -10 -10 -10 -11 -11 -11 -12 -12 -12 -12
-7 -8 -8 -8 -8 -8 -8 -8 -8 -9 -9 -9 -9 -9 -9 -9 -9 -9 -9 -10 -10 -10 -10 -10 -10 -10 -10 -10 -11 -11 -11 -11 -11 -11 -12 -12 -12 -12 -13 -13 -13 -14 -14
-9 -9 -9 -9 -9 -10 -10 -10 -10 -10 -11 -11 -11 -10 -10 -10 -11 -11 -11 -11 -11 -11 -11 -11 -11 -11 -11 -12 -12 -12 -12 -12 -13 -13 -13 -14 -14 -14 -14 -15 -15 -15 -15
-11 -11 -11 -11 -11 -12 -12 -11 -12 -12 -12 -12 -11 -11 -11 -11 -11 -11 -11 -11 -11 -12 -12 -12 -12 -13 -13 -13 -14 -14 -14 -14 -14 -15 -15 -15 -15 -16 -16 -16 -16 -16 -17
-13 -13 -13 -13 -13 -13 -13 -13 -13 -13 -12 -12 -12 -12 -12 -12 -12 -13 -13 -13 -13 -13 -14 -14 -14 -14 -14 -15 -15 -15 -15 -15 -16 -16 -16 -16 -16 -17 -17 -17 -17 -17 -18
-14 -14 -14 -14 -14 -14 -14 -14 -14 -14 -13 -13 -13 -13 -13 -14 -14 -14 -14 -14 -15 -15 -15 -15 -16 -16 -16 -16 -16 -16 -16 -17 -17 -17 -17 -17 -18 -18 -18 -18 -18 -19 -19
-15 -15 -15 -15 -15 -15 -15 -15 -15 -15 -15 -15 -15 -15 -15 -15 -16 -16 -16 -16 -16 -16 -17 -17 -17 -17 -17 -17 -17 -17 -17 -18 -18 -18 -18 -18 -19 -19 -19 -19 -19 -19 -19
-16 -16 -16 -16 -16 -16 -16 -16 -16 -16 -16 -16 -16 -17 -17 -17 -17 -17 -17 -17 -18 -18 -18 -18 -18 -18 -18 -18 -18 -18 -19 -19 -19 -19 -19 -19 -20 -20 -20 -20 -20 -20 -20
-17 -17 -17 -17 -17 -17 -17 -17 -17 -17 -17 -18 -18 -18 -18 -18 -18 -18 -18 -19 -19 -19 -19 -19 -19 -19 -19 -19 -19 -19 -20 -20 -20 -20 -20 -21 -21 -21 -21 -21 -21 -21 -21

GFSGL_700_temp_099.txt.gz
Temp
8 8 7 6 6 6 6 6 6 5 5 4 4 3 3 2 2 1 1 1 1 1 1 1 1 1 1 0 -1 -1 -0 -1 -1 0 -0 -1 -1 -1 -1 -1 -1 -1 -1
7 7 6 5 5 6 6 6 5 5 5 4 4 3 3 2 2 2 1 1 1 1 1 1 1 0 0 0 0 1 0 0 -0 0 0 0 -1 -1 -1 -1 -0 -1 -0
7 6 6 5 5 5 6 6 5 5 4 4 4 4 2 2 1 2 2 2 1 1 1 1 1 1 1 1 0 0 0 -0 -0 -1 1 -0 0 0 0 0 0 0 0
5 5 5 4 5 5 5 5 5 5 5 4 4 4 3 2 2 2 2 2 1 2 1 1 1 0 1 -0 -1 -1 0 -0 0 0 1 1 1 1 1 1 1 1 1
4 4 4 4 4 5 5 5 5 4 4 4 4 3 3 2 3 3 2 2 2 2 2 1 1 0 0 -0 -0 1 0 0 0 0 0 1 1 1 1 1 1 1 1
3 3 4 5 5 4 5 5 5 4 4 4 4 3 3 4 4 4 3 3 2 2 2 1 1 1 1 0 0 1 1 1 1 0 0 0 1 1 1 1 0 0 0
2 2 2 3 3 3 4 4 4 4 4 4 4 3 3 3 3 3 3 2 2 1 1 2 1 2 3 3 2 2 2 1 0 0 0 0 -0 1 0 0 -0 -1 -1
2 1 2 2 2 3 3 3 3 3 3 3 3 3 3 4 3 3 2 1 1 1 1 1 1 1 1 1 1 1 1 1 1 1 1 0 0 0 -1 -0 -0 -0 -1
1 1 1 2 2 2 2 2 2 2 1 1 1 1 1 2 2 1 1 1 1 1 1 1 1 1 1 1 1 1 1 1 0 1 1 0 0 0 -0 -0 0 -0 -0
-2 -3 -2 -2 -1 -1 -1 1 0 0 0 0 0 1 0 0 1 1 1 1 1 1 1 0 1 1 1 1 1 1 1 0 -0 -0 0 0 -0 -1 -1 -0 -1 -0 -0
-4 -4 -5 -3 -4 -3 -2 -1 -1 -1 -1 -1 -0 -0 0 -1 -1 -1 1 1 1 1 1 1 1 1 1 1 1 1 1 1 1 1 1 1 1 1 0 -0 -1 -1 -2
-6 -5 -6 -6 -5 -4 -4 -4 -4 -3 -3 -1 -1 -1 -2 -1 -1 0 1 1 1 1 1 1 1 1 0 0 0 0 1 1 1 0 0 0 0 0 -0 -0 -1 -1 -2
-3 -4 -3 -4 -4 -3 -3 -3 -2 -2 -1 -0 0 -1 -2 -1 -1 -0 -0 -0 -0 -0 -0 -0 -1 -1 -1 -1 -1 -1 -1 -1 -1 -1 -1 -1 -1 -1 -2 -2 -3 -4 -4
-3 -2 -2 -2 -3 -4 -4 -3 -3 -3 -2 -1 -1 -1 -1 -1 -1 -2 -2 -1 -1 -1 -1 -2 -2 -2 -2 -2 -2 -2 -2 -2 -2 -2 -3 -3 -3 -3 -4 -4 -5 -5 -6
-4 -4 -3 -3 -3 -3 -3 -3 -3 -3 -2 -2 -2 -2 -1 -1 -2 -2 -3 -3 -3 -3 -3 -3 -3 -3 -3 -3 -3 -4 -4 -4 -4 -5 -5 -5 -6 -6 -6 -6 -7 -7 -8
-4 -4 -4 -4 -4 -4 -4 -4 -4 -3 -3 -3 -3 -4 -3 -3 -3 -4 -4 -4 -4 -4 -5 -5 -5 -5 -5 -5 -5 -6 -6 -6 -6 -7 -7 -7 -8 -8 -8 -8 -9 -9 -9
-6 -6 -6 -6 -6 -6 -6 -5 -5 -5 -5 -5 -5 -5 -5 -5 -5 -5 -6 -6 -6 -6 -6 -7 -7 -7 -7 -7 -7 -8 -8 -8 -8 -9 -9 -9 -9 -9 -10 -10 -10 -10 -10
-7 -7 -7 -7 -7 -7 -7 -7 -7 -7 -7 -7 -7 -7 -7 -7 -7 -7 -7 -8 -8 -8 -8 -8 -8 -8 -8 -9 -9 -9 -9 -9 -9 -9 -9 -10 -10 -10 -11 -11 -11 -12 -12
-8 -8 -8 -8 -8 -8 -8 -8 -8 -8 -8 -8 -8 -8 -8 -8 -9 -9 -9 -9 -9 -9 -9 -9 -9 -10 -10 -10 -10 -10 -10 -10 -10 -11 -11 -11 -11 -12 -12 -12 -12 -13 -13
-9 -10 -10 -10 -10 -10 -10 -10 -10 -10 -10 -10 -10 -10 -10 -10 -10 -10 -10 -10 -10 -10 -10 -11 -11 -11 -11 -11 -11 -11 -12 -12 -12 -12 -12 -13 -13 -13 -13 -14 -14 -14 -14
-11 -11 -11 -11 -11 -11 -11 -11 -11 -11 -11 -12 -12 -12 -12 -12 -11 -11 -11 -12 -12 -12 -12 -12 -12 -12 -12 -13 -13 -13 -13 -13 -14 -14 -14 -14 -14 -14 -15 -15 -15 -15 -16
-12 -12 -12 -12 -13 -13 -13 -13 -13 -13 -13 -13 -13 -13 -13 -12 -12 -12 -12 -13 -13 -13 -13 -13 -13 -14 -14 -14 -14 -14 -15 -15 -15 -15 -15 -15 -15 -15 -16 -16 -16 -17 -17
-14 -14 -14 -14 -14 -14 -14 -14 -14 -14 -14 -14 -14 -14 -14 -14 -14 -14 -14 -14 -14 -14 -15 -15 -15 -15 -15 -16 -16 -16 -16 -16 -16 -16 -16 -16 -16 -17 -17 -17 -17 -18 -18
-16 -16 -16 -16 -16 -15 -15 -15 -15 -15 -15 -15 -15 -15 -15 -15 -15 -15 -15 -16 -16 -16 -16 -16 -16 -16 -16 -17 -17 -17 -17 -17 -17 -17 -17 -18 -18 -18 -18 -19 -19 -19 -19
-16 -16 -17 -17 -17 -17 -16 -16 -16 -16 -16 -16 -16 -16 -16 -16 -17 -17 -17 -17 -17 -17 -17 -17 -17 -17 -18 -18 -18 -18 -18 -18 -18 -18 -19 -19 -19 -19 -19 -20 -20 -20 -20
-17 -17 -17 -17 -17 -17 -17 -17 -17 -18 -18 -18 -18 -18 -18 -18 -18 -18 -18 -18 -18 -18 -18 -18 -18 -19 -19 -19 -19 -19 -19 -19 -19 -19 -20 -20 -20 -20 -20 -21 -21 -21 -21

GFSGL_700_temp_102.txt.gz
Temp
5 6 6 6 5 6 6 6 6 6 6 6 4 3 3 2 2 1 1 1 1 1 0 0 0 0 1 0 0 0 0 0 -0 -0 -1 -1 -1 -1 -1 -1 -1 -0 -1
5 6 6 4 6 5 6 6 6 6 6 6 5 4 2 2 2 2 1 1 0 0 1 1 1 1 1 1 0 0 -0 0 0 1 -0 -1 -1 -1 -1 -1 -2 -1 0
4 5 4 3 5 5 5 6 6 6 6 6 5 4 2 2 2 1 2 1 1 1 1 1 1 1 1 -0 -0 -0 0 -0 -0 0 0 -0 0 -0 -0 -0 -0 -0 -0
2 2 2 4 3 4 4 5 6 6 6 5 5 4 2 1 1 2 2 2 2 1 1 1 1 0 0 0 0 -0 0 -0 -0 0 0 1 0 0 -0 1 1 0 0
2 3 2 3 3 3 4 4 5 5 5 5 5 4 3 3 2 1 2 1 1 2 1 1 1 1 0 -0 0 -0 -0 -1 -1 0 0 0 0 1 1 0 1 1 0
1 1 2 2 2 3 3 3 5 5 5 5 5 5 5 4 3 2 2 1 1 1 0 1 1 -0 -0 -1 -1 -0 -1 -0 1 0 -0 -0 0 0 0 0 0 -0 -0
1 2 2 2 2 2 2 3 3 4 4 4 4 4 4 4 4 3 2 1 1 1 1 1 1 -0 1 0 0 1 0 0 0 -0 -0 -1 -0 -0 -0 -0 -0 0 -0
1 1 2 2 2 2 2 2 2 3 3 3 3 3 3 4 3 3 2 2 2 2 1 1 2 2 2 1 1 1 -0 -1 -0 0 0 1 0 0 -0 -0 -0 -0 0
0 1 0 1 1 2 2 1 0 1 2 2 3 3 3 3 3 2 2 1 2 2 2 2 1 0 -0 -0 1 0 0 0 0 0 0 0 1 1 1 -0 -0 -0 -0
-4 -2 -2 -1 -1 0 1 1 1 0 0 0 0 0 0 0 1 0 0 1 0 0 0 0 1 -0 -0 -1 -1 -0 -0 0 0 -0 -0 -1 -1 -1 -2 -2 -1 -0 -0
-4 -4 -4 -4 -3 -2 -3 -4 -4 -2 -2 -1 -0 -1 -0 -1 -0 0 0 0 -0 -0 -1 -1 0 0 -0 -0 -0 0 1 1 1 1 1 1 1 0 -0 -0 -0 -1 -1
-6 -5 -5 -5 -4 -5 -4 -4 -6 -5 -4 -4 -3 -4 -2 -1 -1 -3 -2 -1 -0 -4 -2 -1 -0 0 0 0 0 1 1 0 0 -0 -0 -0 -1 -1 -1 -1 -1 -1 -2
-4 -3 -4 -5 -5 -5 -5 -5 -5 -5 -6 -6 -6 -5 -5 -5 -2 -2 -2 -1 -2 -1 -1 -2 -1 -0 -0 -0 -1 -1 -1 -1 -1 -1 -2 -2 -2 -2 -3 -3 -3 -3 -4
-4 -4 -4 -3 -3 -5 -5 -5 -6 -5 -5 -4 -4 -5 -4 -4 -3 -3 -3 -2 -2 -2 -2 -3 -2 -1 -2 -2 -2 -3 -3 -3 -3 -3 -3 -4 -4 -4 -4 -4 -5 -5 -5
-4 -4 -4 -4 -4 -5 -5 -5 -5 -6 -6 -5 -5 -5 -4 -4 -4 -4 -3 -2 -2 -3 -3 -4 -3 -3 -3 -3 -3 -4 -4 -4 -5 -5 -5 -5 -5 -5 -6 -6 -6 -7 -7
-6 -5 -5 -5 -5 -5 -5 -5 -5 -5 -5 -5 -5 -5 -5 -5 -4 -5 -5 -4 -4 -4 -4 -4 -4 -4 -4 -5 -5 -5 -6 -6 -6 -7 -7 -7 -7 -7 -8 -8 -8 -8 -8
-6 -6 -6 -6 -6 -6 -6 -7 -7 -6 -6 -6 -6 -6 -7 -6 -6 -6 -6 -7 -7 -7 -6 -6 -6 -6 -6 -6 -7 -7 -7 -8 -8 -8 -8 -8 -8 -9 -9 -9 -9 -10 -10
-7 -8 -8 -8 -8 -8 -8 -8 -8 -8 -8 -7 -7 -8 -8 -8 -7 -8 -8 -8 -8 -8 -7 -7 -7 -7 -8 -8 -8 -9 -9 -9 -9 -9 -10 -10 -10 -10 -10 -11 -11 -11 -12
-8 -8 -8 -8 -8 -8 -8 -8 -8 -8 -9 -9 -9 -9 -9 -9 -9 -9 -9 -9 -9 -9 -9 -9 -9 -9 -9 -10 -10 -10 -10 -10 -10 -11 -11 -11 -11 -11 -12 -12 -12 -13 -13
-10 -10 -10 -10 -10 -10 -10 -10 -10 -10 -11 -11 -11 -11 -11 -11 -11 -11 -11 -11 -11 -11 -11 -11 -11 -11 -11 -11 -11 -11 -11 -11 -12 -12 -12 -12 -12 -13 -13 -13 -14 -14 -14
-11 -12 -12 -12 -11 -11 -12 -12 -12 -12 -12 -12 -12 -12 -12 -12 -12 -12 -12 -12 -12 -12 -12 -12 -12 -12 -12 -12 -12 -12 -13 -13 -13 -13 -13 -14 -14 -14 -14 -15 -15 -15 -15
-12 -12 -13 -13 -13 -13 -13 -13 -13 -13 -13 -13 -13 -13 -13 -13 -13 -13 -13 -13 -13 -13 -13 -13 -13 -13 -14 -14 -14 -14 -14 -15 -15 -15 -15 -15 -15 -16 -16 -16 -16 -16 -16
-14 -14 -14 -14 -14 -14 -14 -15 -14 -14 -14 -14 -14 -14 -14 -14 -14 -14 -14 -14 -14 -14 -14 -14 -15 -15 -15 -15 -15 -16 -16 -16 -16 -16 -16 -17 -17 -17 -17 -17 -17 -17 -17
-16 -16 -16 -16 -15 -15 -15 -15 -15 -15 -15 -15 -15 -15 -15 -15 -15 -15 -15 -15 -15 -16 -16 -16 -16 -16 -16 -17 -17 -17 -17 -17 -17 -17 -18 -18 -18 -18 -18 -18 -18 -19 -19
-17 -17 -17 -17 -17 -17 -17 -17 -16 -16 -16 -16 -16 -16 -16 -16 -16 -16 -17 -17 -17 -17 -17 -17 -17 -18 -17 -18 -18 -18 -18 -18 -19 -19 -19 -19 -19 -19 -19 -19 -20 -20 -20
-18 -18 -18 -18 -18 -18 -18 -18 -18 -18 -18 -18 -18 -18 -18 -18 -18 -18 -18 -18 -18 -18 -18 -18 -19 -19 -18 -19 -19 -19 -19 -19 -20 -20 -20 -20 -20 -20 -20 -21 -21 -21 -21

GFSGL_700_temp_105.txt.gz
Temp
4 4 4 3 4 4 6 7 6 6 6 6 6 6 5 4 3 2 2 1 1 0 1 1 0 -0 -0 -1 -1 -1 -1 -1 -0 -0 -0 -0 -0 -0 -1 -0 -0 -0 -1
3 2 3 3 3 4 5 6 6 6 6 6 6 5 5 4 4 1 1 1 1 2 1 0 0 0 0 0 -0 -0 -0 0 0 -0 -0 -1 -1 -1 -0 -0 -0 -0 -1
2 2 3 2 3 3 5 5 5 5 6 6 5 5 5 4 4 2 1 1 1 1 1 1 0 0 0 -0 1 0 -0 -0 -0 -0 0 -1 -1 -1 -1 -1 -1 -1 -1
2 1 1 2 3 4 3 4 4 5 5 5 5 5 5 5 4 2 1 1 1 1 1 1 0 1 1 1 0 1 -0 -0 -0 -0 -0 -0 -0 -0 -1 -1 -0 -1 -0
2 2 1 2 3 3 3 2 3 4 4 4 4 4 5 5 5 3 3 2 1 1 1 1 1 0 1 0 0 0 0 -0 -0 -0 -0 -0 -0 -1 -1 -1 -0 0 0
1 1 2 2 2 3 2 3 2 3 3 4 5 5 4 5 4 3 2 2 1 1 1 1 1 0 1 1 0 -0 -0 -0 -1 0 -1 -1 -1 -0 -0 -1 -0 0 -1
1 0 1 2 2 2 1 1 2 2 3 3 3 3 4 4 4 3 2 1 1 1 0 0 1 1 0 -0 0 -0 -0 -1 -1 -1 -1 -0 -0 0 0 -0 -1 -0 -1
-1 -0 1 1 2 2 2 2 2 2 2 1 1 1 1 2 3 3 2 1 0 -0 -0 1 0 0 0 0 -0 -1 -1 -1 -1 -1 -1 -1 -0 0 0 0 0 -0 -0
-3 -3 -2 -0 1 0 0 1 1 1 1 1 0 1 0 -0 0 -0 -0 -1 -1 -0 0 0 1 0 -0 -0 -1 -0 -0 -0 -1 -1 -0 -0 -0 0 -0 -0 -1 -0 0
-4 -4 -3 -4 -3 -1 0 0 0 1 1 -0 1 -1 0 0 0 -0 0 0 -0 -1 -1 -0 -0 -1 -1 -0 -1 -1 -1 -1 -0 -0 -0 -0 -0 -1 -1 -0 -1 -0 0
-4 -5 -5 -5 -4 -4 -2 -3 -0 -0 0 0 -0 -1 -2 -0 -0 -1 -1 -1 -1 -1 -1 -1 -0 -0 -0 -0 -1 -1 -1 -1 -1 -0 -1 -1 -0 -1 -0 -0 -1 -1 -1
-4 -4 -4 -5 -5 -5 -5 -5 -4 -4 -4 -3 -4 -4 -3 -3 -3 -1 -2 -1 -1 -1 -0 -1 -1 -1 -1 -2 -2 -3 -2 -2 -2 -1 -1 -1 -1 -1 -1 -1 -1 -1 -2
-4 -4 -4 -5 -5 -5 -5 -5 -5 -5 -5 -5 -5 -5 -5 -5 -6 -6 -5 -5 -4 -2 -5 -1 -4 -3 -2 -2 -2 -2 -2 -2 -2 -2 -2 -2 -2 -2 -2 -2 -2 -3 -3
-5 -4 -4 -5 -4 -5 -5 -5 -5 -5 -6 -6 -6 -5 -5 -5 -6 -5 -5 -6 -6 -6 -5 -4 -4 -3 -3 -3 -3 -3 -3 -3 -3 -3 -3 -3 -3 -3 -4 -4 -4 -4 -5
-5 -5 -5 -5 -5 -5 -5 -5 -5 -6 -6 -6 -6 -6 -6 -6 -6 -6 -5 -5 -5 -5 -5 -5 -5 -5 -4 -4 -4 -5 -5 -5 -5 -5 -4 -4 -5 -5 -5 -5 -6 -6 -6
-6 -6 -6 -6 -6 -6 -6 -6 -6 -6 -6 -6 -7 -7 -7 -7 -7 -7 -7 -6 -6 -6 -6 -7 -7 -6 -6 -5 -5 -5 -6 -6 -6 -6 -6 -6 -6 -7 -7 -7 -7 -7 -7
-7 -8 -7 -7 -7 -7 -7 -7 -7 -7 -7 -7 -7 -7 -7 -8 -8 -8 -8 -8 -8 -8 -8 -8 -8 -8 -8 -8 -8 -8 -8 -8 -8 -8 -8 -8 -8 -9 -8 -8 -9 -9 -9
-8 -8 -8 -8 -8 -8 -8 -8 -8 -8 -8 -8 -8 -9 -9 -9 -9 -9 -9 -9 -9 -9 -9 -9 -9 -9 -9 -9 -9 -9 -9 -9 -10 -9 -9 -9 -9 -9 -10 -10 -10 -10 -10
-9 -10 -10 -10 -9 -9 -9 -9 -10 -10 -10 -10 -10 -10 -10 -10 -10 -10 -10 -10 -10 -10 -10 -10 -10 -10 -10 -10 -10 -10 -10 -10 -10 -10 -11 -11 -11 -11 -11 -12 -12 -12 -12
-11 -11 -11 -11 -11 -11 -11 -11 -12 -12 -11 -11 -11 -11 -12 -12 -12 -12 -11 -11 -11 -11 -11 -11 -11 -11 -11 -11 -11 -11 -12 -12 -12 -12 -12 -12 -13 -13 -13 -13 -13 -13 -14
-12 -12 -13 -13 -12 -12 -12 -12 -12 -12 -12 -12 -12 -12 -12 -13 -13 -13 -13 -13 -13 -13 -13 -13 -13 -12 -13 -13 -13 -13 -13 -13 -14 -14 -14 -14 -14 -14 -14 -15 -15 -14 -15
-13 -13 -14 -14 -14 -14 -14 -14 -14 -14 -14 -14 -14 -14 -14 -14 -14 -14 -14 -14 -14 -14 -14 -14 -14 -14 -14 -14 -14 -14 -15 -15 -15 -15 -15 -15 -15 -15 -15 -15 -16 -16 -16
-15 -15 -14 -14 -15 -15 -15 -15 -15 -15 -15 -15 -15 -15 -15 -15 -15 -15 -15 -15 -15 -15 -15 -15 -15 -15 -15 -15 -15 -15 -16 -16 -16 -16 -16 -16 -17 -16 -17 -17 -17 -17 -17
-17 -17 -17 -17 -16 -16 -16 -16 -16 -16 -16 -16 -16 -16 -16 -16 -16 -16 -16 -16 -16 -16 -16 -16 -16 -16 -17 -17 -16 -17 -17 -17 -17 -17 -17 -17 -18 -18 -18 -18 -18 -19 -19
-18 -18 -18 -18 -18 -18 -18 -17 -17 -17 -17 -17 -17 -17 -17 -17 -17 -17 -17 -17 -17 -17 -17 -17 -17 -18 -18 -18 -18 -18 -18 -19 -19 -19 -19 -19 -19 -19 -19 -20 -20 -20 -20
-19 -19 -19 -19 -19 -19 -19 -19 -19 -18 -18 -18 -18 -18 -18 -18 -18 -19 -19 -19 -19 -19 -19 -19 -19 -19 -19 -19 -19 -19 -20 -20 -20 -20 -20 -20 -20 -20 -21 -21 -21 -21 -21

GFSGL_700_temp_108.txt.gz
Temp
5 5 5 5 4 4 4 4 5 6 5 6 6 6 6 5 4 4 3 2 2 1 1 1 2 1 1 -0 0 0 -0 -1 -1 -1 -1 -1 -1 -1 -1 -1 -1 -1 -1
4 5 4 3 3 3 3 4 5 5 5 5 6 6 6 5 4 3 2 2 2 1 1 1 1 1 1 0 -0 -0 -0 0 -1 0 -1 -1 -1 -1 -1 -1 -1 -1 -1
3 3 3 3 3 2 2 3 4 4 5 4 5 5 5 5 4 3 2 1 1 2 2 1 0 0 0 0 0 0 -0 -0 0 -0 -0 -0 -0 -0 -0 -0 -1 -1 -1
1 2 2 2 2 2 2 3 4 3 4 4 4 5 5 5 4 3 2 2 2 1 1 1 1 0 0 0 0 0 -0 -0 -0 -0 -0 -0 -1 -1 -1 -1 -1 -1 -1
1 1 1 1 1 1 3 3 2 2 3 3 3 5 5 5 5 4 2 1 1 1 1 1 1 0 -0 0 0 0 -0 0 -0 -0 -0 -0 -0 -1 -1 -1 -1 -1 -2
0 1 1 0 1 2 2 3 3 2 3 3 3 4 5 5 4 4 1 1 1 0 1 0 1 0 0 0 1 0 -0 0 0 -0 -0 -0 -0 -0 -1 -1 -1 -1 -1
0 -0 0 -0 0 1 2 2 1 0 2 2 3 4 4 4 4 3 2 1 1 1 1 1 1 0 0 0 0 0 1 0 -0 -0 -0 -1 -1 -1 -1 -1 -2 -1 -0
-1 -0 -0 -0 -0 0 1 1 1 1 1 1 1 2 3 4 3 3 2 0 0 0 1 1 0 1 1 0 0 -1 -1 -1 -1 -1 -1 -1 -1 -1 -1 -1 -0 -1 -1
-3 -3 -2 -1 -1 0 -0 0 -0 1 0 1 1 1 2 3 3 2 1 -0 -0 0 -0 0 0 0 0 0 -0 -0 -0 -0 -0 -1 -0 -0 -2 -1 -1 -1 -1 -1 -1
-3 -3 -4 -3 -3 -2 -2 -1 -0 0 -0 0 0 1 1 0 1 0 0 0 -0 -1 -0 -0 -0 -1 -1 -1 -1 -0 0 0 -0 -1 -1 -0 -1 -1 -1 -1 -1 -1 -1
-4 -4 -5 -5 -4 -4 -3 -4 -3 -2 -2 -1 -2 -0 0 0 0 0 0 -0 -0 0 -0 -1 -0 -1 -0 -1 -1 -1 -1 -1 -1 -1 -2 -2 -1 -1 -1 -1 -2 -1 -1
-4 -4 -4 -5 -5 -5 -5 -5 -4 -4 -5 -5 -4 -3 -3 -1 -1 -0 -1 -1 -1 -1 -1 -1 -1 -1 -1 -1 -2 -1 -1 -1 -1 -2 -2 -3 -3 -2 -2 -2 -2 -2 -2
-4 -4 -4 -4 -4 -5 -5 -6 -5 -5 -5 -5 -5 -5 -5 -4 -3 -4 -4 -5 -4 -4 -3 -3 -3 -2 -2 -3 -2 -3 -2 -5 -4 -4 -3 -2 -3 -3 -3 -3 -3 -3 -3
-5 -5 -4 -4 -4 -4 -4 -5 -6 -6 -6 -6 -5 -5 -5 -6 -6 -5 -5 -5 -5 -5 -5 -6 -6 -6 -6 -6 -6 -6 -6 -5 -4 -3 -3 -4 -4 -4 -4 -4 -4 -4 -5
-5 -5 -5 -5 -5 -5 -5 -5 -5 -5 -5 -5 -6 -6 -6 -6 -6 -6 -6 -6 -6 -6 -6 -6 -6 -6 -5 -6 -7 -6 -6 -6 -5 -5 -5 -5 -5 -6 -6 -6 -5 -5 -6
-6 -6 -6 -6 -6 -6 -6 -6 -6 -6 -6 -6 -5 -6 -7 -7 -7 -7 -7 -7 -7 -6 -6 -6 -6 -6 -6 -6 -6 -6 -6 -7 -7 -6 -6 -6 -6 -6 -6 -6 -7 -7 -8
-7 -8 -7 -7 -7 -7 -7 -7 -7 -7 -7 -8 -8 -8 -8 -8 -8 -8 -8 -8 -8 -8 -8 -8 -8 -8 -8 -8 -8 -8 -8 -8 -8 -8 -8 -8 -8 -8 -8 -8 -8 -9 -9
-9 -9 -9 -9 -9 -9 -9 -9 -9 -9 -9 -9 -9 -9 -9 -9 -9 -9 -9 -9 -9 -9 -9 -9 -9 -10 -10 -10 -10 -10 -10 -9 -9 -9 -9 -9 -9 -9 -9 -9 -9 -10 -10
-10 -10 -10 -10 -10 -10 -10 -10 -10 -10 -11 -11 -11 -11 -11 -11 -11 -11 -11 -11 -11 -11 -10 -10 -10 -11 -11 -10 -10 -10 -10 -10 -10 -10 -10 -10 -10 -11 -11 -11 -11 -11 -11
-11 -11 -11 -11 -11 -11 -12 -12 -12 -12 -12 -12 -12 -12 -12 -12 -12 -12 -12 -12 -11 -11 -12 -12 -12 -12 -12 -12 -12 -12 -12 -12 -12 -12 -12 -12 -12 -12 -12 -12 -13 -13 -13
-12 -12 -13 -13 -13 -13 -13 -13 -13 -13 -13 -13 -13 -13 -13 -13 -13 -13 -13 -13 -13 -13 -13 -13 -13 -13 -13 -13 -13 -13 -13 -13 -13 -13 -13 -13 -13 -13 -14 -14 -14 -15 -15
-14 -14 -14 -15 -15 -15 -15 -15 -15 -15 -15 -15 -15 -15 -15 -15 -15 -14 -14 -14 -14 -14 -14 -14 -14 -14 -14 -14 -14 -14 -14 -14 -14 -15 -15 -15 -15 -15 -16 -16 -16 -16 -16
-16 -16 -16 -16 -16 -16 -16 -16 -17 -16 -16 -16 -16 -16 -16 -16 -16 -16 -16 -16 -16 -15 -15 -15 -15 -15 -15 -15 -16 -16 -16 -16 -16 -16 -16 -17 -17 -17 -17 -17 -17 -17 -18
-18 -18 -18 -18 -18 -17 -17 -17 -18 -18 -18 -17 -17 -17 -17 -17 -17 -17 -17 -17 -17 -17 -17 -17 -17 -17 -17 -17 -17 -17 -17 -17 -17 -17 -18 -18 -18 -18 -18 -18 -18 -19 -19
-19 -19 -19 -19 -19 -19 -19 -18 -18 -18 -19 -19 -19 -19 -19 -19 -18 -18 -18 -18 -18 -18 -18 -18 -18 -18 -18 -18 -18 -18 -18 -18 -19 -19 -19 -19 -19 -19 -20 -20 -20 -20 -20
-20 -20 -20 -20 -20 -20 -20 -20 -19 -19 -19 -19 -19 -19 -19 -20 -20 -20 -19 -19 -19 -19 -19 -19 -20 -20 -20 -19 -19 -20 -20 -19 -19 -20 -20 -20 -20 -20 -20 -20 -20 -21 -21

GFSGL_700_temp_111.txt.gz
Temp
6 6 6 6 6 6 5 4 4 4 4 4 4 5 5 5 6 6 6 5 4 1 2 2 1 1 1 1 1 1 1 0 0 -0 -1 -1 -1 -1 -1 -1 -1 -1 -2
5 5 5 5 5 5 4 3 4 4 3 3 4 4 5 5 5 6 5 5 3 1 1 1 2 1 1 1 1 1 1 -0 0 -1 -1 -1 -2 -1 -1 -1 -1 -1 -2
3 3 2 2 3 3 3 3 3 3 3 3 4 4 4 4 5 6 5 5 4 1 2 1 1 1 1 0 0 0 -0 -0 -0 -0 -0 -1 -1 -1 -1 -1 -1 -1 -1
1 1 2 2 2 2 3 3 3 3 3 3 3 3 4 4 5 5 5 5 4 1 1 2 1 1 2 1 0 0 -0 -0 0 0 -0 -0 -1 -1 -1 -1 -1 -1 -1
0 1 1 1 1 1 2 2 2 3 3 3 3 3 3 4 5 5 5 5 4 3 1 1 2 1 1 0 -0 0 0 -0 -0 -0 -0 -1 -0 -1 -1 -0 -1 -1 -1
0 0 0 0 1 1 1 2 3 2 3 3 1 2 3 4 4 4 5 4 4 3 1 0 1 1 1 1 0 0 -0 -0 0 -0 1 -0 -0 -1 -0 -1 -1 -1 -1
0 1 0 -0 1 0 0 1 1 2 1 1 1 1 2 2 3 3 4 3 3 2 1 1 1 0 1 0 1 0 -0 0 0 -0 0 -0 -1 -1 -1 -0 -1 -1 -1
-1 -2 -1 -1 -1 -1 -0 -0 -0 0 0 2 1 1 2 2 2 3 3 2 2 0 -0 0 1 0 0 1 0 0 -0 0 0 0 0 -0 -0 -0 -1 -1 -1 -1 -1
-3 -3 -3 -2 -1 -1 -1 -1 -0 -0 -0 -0 -0 0 1 1 1 1 2 2 0 1 0 1 -0 1 -0 0 0 0 0 -0 0 -0 -0 -0 -1 -2 -1 -1 -1 -1 -1
-3 -3 -3 -3 -3 -3 -3 -2 -1 -1 -1 -1 0 0 -0 0 0 1 -1 -0 -1 -0 -1 0 0 0 0 -0 -1 -1 0 -0 -0 -1 -1 -1 -0 -1 -0 -1 -1 -1 -1
-3 -3 -4 -4 -4 -4 -4 -4 -4 -3 -3 -3 -2 -1 -1 -1 0 -0 -0 -1 -1 -0 -1 -1 -1 -1 -1 -0 -0 -1 -1 -0 -1 -1 -1 -1 -1 -1 -1 -1 -1 -2 -1
-4 -4 -4 -4 -3 -4 -4 -4 -5 -5 -5 -4 -4 -4 -4 -3 -2 -2 -2 -1 -1 -1 -1 -1 -1 -1 -1 -1 -1 -1 -1 -1 -1 -1 -1 -1 -2 -2 -2 -2 -2 -2 -3
-5 -4 -4 -4 -4 -4 -4 -4 -5 -4 -4 -5 -5 -5 -6 -5 -5 -5 -4 -4 -4 -4 -3 -2 -3 -3 -2 -3 -3 -2 -2 -3 -3 -2 -2 -3 -3 -3 -3 -3 -5 -5 -3
-5 -5 -5 -5 -5 -5 -5 -5 -5 -5 -5 -6 -6 -5 -5 -6 -6 -6 -6 -6 -6 -5 -5 -5 -5 -5 -5 -5 -5 -6 -5 -6 -5 -4 -5 -5 -6 -6 -6 -4 -4 -4 -5
-6 -6 -5 -5 -6 -6 -6 -6 -6 -6 -6 -6 -6 -6 -6 -6 -6 -6 -6 -6 -6 -6 -6 -6 -6 -6 -6 -6 -6 -6 -6 -6 -6 -6 -6 -7 -7 -7 -6 -6 -6 -7 -7
-7 -7 -6 -6 -6 -6 -7 -7 -7 -7 -7 -7 -7 -7 -7 -7 -7 -7 -7 -7 -7 -7 -7 -7 -7 -7 -7 -6 -6 -7 -7 -7 -7 -7 -7 -7 -7 -7 -7 -8 -9 -9 -9
-8 -8 -8 -8 -8 -8 -8 -8 -8 -8 -8 -8 -8 -8 -8 -8 -8 -8 -8 -8 -9 -9 -8 -8 -8 -8 -8 -8 -8 -8 -7 -7 -7 -7 -7 -8 -8 -8 -9 -9 -9 -8 -9
-8 -8 -9 -9 -9 -9 -9 -9 -9 -9 -9 -10 -10 -10 -10 -10 -10 -10 -9 -9 -9 -9 -10 -9 -9 -9 -9 -9 -9 -9 -9 -9 -9 -9 -9 -9 -9 -9 -9 -9 -10 -9 -9
-9 -9 -10 -10 -10 -11 -11 -11 -11 -11 -11 -10 -10 -11 -11 -11 -11 -10 -10 -10 -10 -10 -10 -10 -10 -10 -10 -11 -10 -10 -10 -10 -10 -10 -10 -10 -10 -10 -10 -11 -11 -11 -11
-11 -11 -11 -11 -12 -12 -12 -12 -12 -12 -12 -12 -12 -12 -12 -12 -12 -12 -12 -12 -12 -12 -12 -12 -12 -12 -12 -12 -11 -11 -11 -11 -12 -12 -12 -12 -12 -12 -12 -12 -12 -12 -13
-13 -13 -13 -13 -14 -14 -14 -14 -14 -14 -14 -14 -14 -14 -14 -14 -14 -14 -13 -13 -13 -13 -13 -13 -13 -13 -13 -13 -13 -13 -13 -13 -13 -13 -13 -13 -13 -13 -14 -14 -14 -14 -14
-14 -15 -15 -15 -16 -16 -16 -16 -16 -16 -16 -15 -15 -15 -15 -15 -15 -15 -15 -15 -15 -15 -15 -15 -14 -14 -14 -14 -14 -14 -14 -14 -14 -15 -15 -15 -15 -14 -15 -14 -14 -15 -15
-16 -16 -17 -17 -17 -17 -17 -18 -18 -18 -17 -17 -17 -17 -17 -16 -16 -16 -16 -16 -16 -16 -16 -16 -16 -16 -16 -16 -16 -16 -16 -16 -16 -16 -15 -16 -16 -16 -16 -16 -16 -17 -17
-17 -18 -18 -18 -18 -18 -19 -19 -19 -19 -19 -19 -18 -18 -18 -18 -18 -18 -17 -17 -17 -17 -17 -17 -17 -17 -16 -16 -16 -16 -17 -17 -16 -17 -17 -17 -17 -17 -17 -17 -18 -18 -18
-18 -19 -19 -19 -19 -19 -20 -20 -20 -20 -20 -20 -20 -19 -19 -19 -19 -19 -19 -19 -18 -18 -18 -18 -18 -18 -18 -18 -18 -18 -18 -18 -18 -18 -18 -18 -19 -19 -19 -19 -19 -19 -19
-19 -20 -20 -20 -20 -20 -20 -20 -20 -20 -20 -20 -20 -20 -21 -20 -20 -20 -20 -20 -20 -20 -20 -20 -19 -19 -19 -19 -19 -19 -19 -19 -20 -20 -20 -20 -20 -20 -20 -20 -20 -20 -20

GFSGL_700_temp_114.txt.gz
Temp
4 4 4 5 5 5 5 5 5 5 5 4 4 4 4 4 4 4 5 5 5 5 5 4 3 2 2 2 1 2 2 1 2 1 0 -0 0 -2 -0 -1 -1 -1 -0
4 4 5 5 5 5 5 5 5 5 5 4 4 4 4 4 4 4 5 5 5 5 5 4 3 2 2 2 1 1 1 1 1 2 0 -0 -0 -1 -1 -1 -1 -1 -1
3 4 4 4 5 5 5 5 5 5 4 3 3 3 3 3 3 4 4 4 5 5 5 4 3 2 2 1 2 1 1 1 1 0 0 -0 -0 -1 -1 -1 -1 -1 -1
1 2 1 0 2 2 2 3 3 2 3 3 3 2 2 3 2 3 3 4 5 5 5 4 3 3 2 2 1 1 1 1 1 0 -0 -0 -1 -1 -0 -1 -1 -1 -1
-1 0 0 1 0 1 1 2 2 2 2 2 2 2 2 2 2 2 2 3 4 4 4 4 3 2 2 2 1 1 1 1 0 -1 -0 -0 -1 -1 -1 -1 -1 -1 -1
-2 -1 0 0 -0 0 1 1 1 1 1 1 2 2 2 2 3 1 1 2 3 3 3 3 2 2 2 1 1 1 1 0 -0 -0 -0 -0 -0 -0 -1 -0 -1 -1 -1
-2 -2 -1 0 0 -0 -1 -0 0 1 1 1 1 2 0 2 2 1 1 2 3 3 3 3 2 1 2 2 1 1 0 0 -0 -0 -0 -0 -0 -0 -1 -0 -1 -1 -1
-3 -3 -3 -2 -2 -1 -1 -1 -0 0 0 -1 1 0 1 0 0 1 1 1 2 2 2 2 0 0 1 1 -0 0 0 0 -0 -0 0 -0 0 -0 -0 -0 -1 -1 -1
-3 -3 -2 -2 -3 -3 -2 -1 -1 -1 -1 -0 -0 -0 -0 -1 0 -0 0 1 1 1 1 0 -0 0 -0 -0 0 -0 0 -0 -0 -0 -0 -0 -0 -1 -0 -1 -1 -1 -1
-3 -3 -3 -3 -3 -3 -3 -3 -3 -3 -2 -2 -1 -1 -1 0 -1 -1 0 -1 -0 -1 -1 -1 -0 -0 0 -0 -0 -0 -1 0 -0 -0 -0 -0 -0 -1 -1 -1 -1 -1 -1
-4 -4 -4 -3 -3 -4 -3 -4 -4 -4 -4 -3 -3 -2 -2 -1 -1 -1 -1 -0 -1 -1 -1 -2 -1 -1 -1 -0 -1 -0 -0 -1 -0 0 0 -0 -1 -1 -1 -1 -1 -1 -2
-5 -5 -4 -4 -4 -4 -4 -4 -4 -4 -5 -4 -4 -4 -4 -3 -4 -3 -2 -2 -2 -2 -2 -1 -1 -2 -1 -1 -1 -1 -1 -1 -1 -1 -1 -1 -1 -1 -1 -1 -1 -1 -1
-6 -5 -5 -5 -5 -4 -4 -4 -4 -4 -5 -5 -5 -5 -5 -5 -4 -5 -5 -5 -5 -5 -4 -4 -4 -4 -3 -2 -2 -1 -1 -1 -2 -2 -2 -1 -2 -2 -2 -2 -2 -2 -2
-6 -6 -6 -6 -5 -5 -5 -5 -5 -5 -5 -5 -5 -5 -5 -6 -6 -5 -5 -5 -5 -6 -6 -5 -6 -6 -5 -5 -5 -5 -5 -4 -4 -4 -4 -4 -4 -4 -4 -4 -5 -5 -5
-7 -6 -6 -6 -6 -6 -6 -6 -6 -6 -6 -6 -6 -6 -6 -6 -6 -6 -6 -6 -6 -6 -6 -6 -6 -6 -6 -6 -6 -6 -6 -6 -6 -6 -6 -6 -6 -6 -6 -6 -6 -7 -7
-7 -7 -7 -7 -7 -7 -7 -7 -7 -7 -7 -7 -7 -7 -7 -7 -7 -7 -7 -7 -7 -7 -7 -7 -7 -7 -7 -7 -7 -7 -7 -7 -7 -7 -7 -7 -7 -7 -7 -8 -8 -8 -7
-8 -8 -8 -8 -8 -9 -9 -9 -8 -8 -8 -8 -9 -8 -8 -8 -8 -8 -8 -8 -8 -8 -8 -8 -8 -8 -8 -8 -7 -7 -7 -8 -8 -8 -8 -8 -8 -8 -8 -8 -8 -8 -8
-9 -9 -9 -9 -9 -9 -10 -10 -10 -10 -10 -10 -9 -10 -10 -10 -10 -9 -9 -9 -10 -10 -10 -10 -10 -10 -9 -9 -9 -10 -9 -9 -9 -9 -10 -10 -9 -10 -10 -10 -10 -10 -10
-10 -10 -10 -10 -11 -11 -11 -11 -12 -12 -12 -12 -11 -11 -11 -11 -11 -11 -11 -11 -11 -11 -11 -11 -11 -11 -11 -11 -11 -11 -10 -11 -11 -11 -11 -11 -11 -10 -11 -11 -11 -11 -11
-12 -12 -12 -12 -13 -13 -13 -13 -13 -13 -13 -13 -13 -13 -13 -13 -13 -13 -13 -13 -12 -12 -12 -12 -12 -12 -12 -12 -12 -12 -12 -12 -12 -12 -12 -12 -12 -12 -12 -12 -12 -12 -12
-13 -13 -14 -14 -14 -15 -15 -15 -15 -15 -15 -15 -15 -15 -15 -15 -15 -15 -15 -14 -14 -14 -14 -14 -13 -13 -13 -13 -13 -13 -13 -13 -13 -13 -13 -13 -13 -13 -13 -13 -13 -14 -14
-15 -15 -15 -15 -16 -16 -16 -16 -17 -17 -17 -17 -17 -17 -17 -16 -16 -16 -16 -16 -16 -16 -15 -15 -15 -15 -15 -15 -15 -15 -15 -15 -15 -15 -15 -14 -15 -15 -15 -15 -15 -15 -15
-16 -17 -17 -17 -17 -17 -18 -18 -18 -18 -18 -19 -19 -19 -18 -18 -18 -17 -17 -17 -17 -17 -17 -17 -17 -16 -16 -16 -16 -16 -16 -16 -16 -16 -16 -16 -16 -16 -16 -16 -16 -16 -16
-18 -18 -18 -18 -18 -18 -19 -19 -19 -19 -19 -20 -20 -20 -20 -19 -19 -19 -19 -19 -18 -18 -18 -18 -18 -18 -17 -17 -17 -17 -17 -17 -17 -17 -17 -17 -17 -17 -17 -17 -17 -17 -17
-19 -19 -19 -19 -19 -19 -20 -20 -20 -20 -21 -20 -20 -21 -20 -20 -20 -20 -20 -20 -20 -19 -19 -19 -19 -19 -18 -18 -18 -18 -18 -18 -18 -18 -18 -18 -18 -18 -18 -18 -19 -19 -19
-20 -20 -20 -20 -20 -20 -20 -21 -21 -21 -21 -21 -21 -21 -21 -21 -21 -21 -21 -21 -20 -20 -20 -20 -20 -20 -20 -20 -19 -20 -20 -19 -19 -20 -20 -20 -19 -20 -20 -20 -20 -20 -20

GFSGL_700_temp_117.txt.gz
Temp
4 4 5 5 5 5 5 5 5 5 4 4 4 4 4 4 4 4 4 4 4 4 5 5 5 4 4 3 2 2 2 1 1 2 1 1 1 1 0 -1 -1 -0 0
2 3 3 3 4 4 4 5 5 5 4 4 4 4 4 4 3 3 3 4 3 4 4 4 4 4 4 3 2 2 2 1 1 2 2 2 0 1 -0 -0 -1 -2 -1
2 3 3 4 4 4 4 4 5 5 5 5 4 4 4 3 3 3 3 3 3 3 3 3 4 4 4 3 2 2 2 1 1 2 1 1 0 1 -0 -0 -1 -3 -1
2 3 3 3 4 4 4 4 4 4 4 4 4 4 3 3 3 2 2 2 2 2 3 2 3 4 4 3 3 2 2 2 1 1 1 1 0 -0 -0 -0 -1 -2 -2
-0 -2 -1 -1 -0 1 2 2 1 2 2 1 2 2 2 2 3 2 2 2 2 2 1 2 3 4 4 3 3 2 1 1 1 1 0 1 0 -0 -0 -0 -0 -2 -2
-2 -2 -1 -1 0 0 0 0 0 0 0 0 0 1 2 1 1 2 2 2 2 2 1 2 2 3 3 2 2 2 1 1 1 0 0 0 -0 -0 -0 -1 -1 -1 -1
-2 -2 -2 -1 -1 -0 -1 -0 -0 -0 0 0 0 1 1 1 1 2 1 2 1 -0 -0 0 1 2 2 2 2 1 1 1 1 1 0 1 -0 -0 -1 -1 -1 -1 -1
-3 -3 -3 -3 -3 -2 -2 -2 -1 -1 -1 -1 -0 0 0 1 1 1 0 1 0 -0 -0 -0 1 2 2 1 2 1 1 0 1 0 0 0 -0 -0 -0 -1 -1 -1 -1
-3 -3 -3 -3 -3 -3 -3 -3 -2 -1 -1 -1 -1 -1 -0 -0 -0 0 -0 -0 -1 -1 -0 0 1 1 1 1 1 0 0 0 0 0 0 -0 -0 -0 -0 -1 -1 -1 -1
-3 -3 -3 -3 -3 -3 -3 -3 -3 -3 -3 -3 -2 -2 -1 -1 -1 -1 -1 -1 -0 -1 -1 -1 -0 0 0 0 -0 0 -0 -0 -0 -0 1 -0 -0 -0 -0 -0 -1 -1 -1
-4 -4 -4 -4 -4 -4 -4 -4 -4 -4 -4 -4 -3 -3 -3 -3 -3 -2 -2 -1 -1 -1 -1 -1 -1 -1 -1 -1 -1 -0 0 -1 -1 -0 -1 -0 -0 -0 -0 -1 -1 -1 -1
-5 -5 -5 -5 -5 -5 -5 -5 -5 -4 -4 -4 -4 -4 -4 -4 -4 -4 -4 -4 -3 -2 -2 -2 -2 -1 -1 -1 -1 -1 -1 -1 -1 -1 -1 -1 -1 -1 -1 -1 -1 -1 -1
-6 -6 -6 -6 -6 -6 -5 -5 -5 -5 -5 -5 -5 -5 -4 -4 -5 -5 -5 -5 -5 -5 -4 -4 -4 -3 -3 -3 -2 -2 -2 -2 -2 -1 -1 -1 -1 -1 -1 -1 -2 -1 -1
-6 -6 -6 -6 -6 -6 -6 -6 -6 -6 -6 -5 -5 -5 -5 -5 -5 -5 -5 -5 -6 -6 -6 -5 -5 -5 -5 -5 -5 -4 -4 -5 -4 -4 -4 -4 -4 -4 -2 -2 -3 -3 -2
-7 -7 -7 -7 -7 -7 -7 -7 -7 -7 -7 -7 -6 -6 -6 -6 -6 -6 -6 -6 -6 -6 -6 -6 -6 -6 -6 -6 -6 -6 -6 -6 -6 -6 -6 -6 -6 -6 -6 -6 -6 -6 -6
-8 -8 -8 -8 -8 -7 -8 -8 -8 -8 -8 -7 -7 -7 -7 -7 -7 -7 -7 -7 -7 -7 -7 -7 -7 -7 -7 -7 -7 -7 -7 -7 -7 -7 -7 -7 -7 -7 -7 -7 -7 -7 -7
-9 -9 -9 -9 -9 -9 -9 -9 -9 -9 -9 -9 -9 -9 -9 -9 -9 -9 -8 -8 -8 -8 -8 -8 -8 -8 -8 -8 -8 -8 -8 -7 -7 -7 -7 -8 -8 -8 -8 -8 -8 -8 -8
-10 -10 -10 -10 -10 -10 -10 -10 -10 -11 -11 -11 -10 -10 -10 -10 -11 -11 -11 -10 -10 -10 -10 -10 -10 -9 -9 -9 -9 -9 -9 -9 -9 -9 -9 -9 -9 -9 -9 -9 -10 -10 -10
-11 -11 -12 -12 -12 -12 -12 -12 -12 -12 -12 -12 -12 -12 -12 -12 -12 -12 -12 -12 -12 -12 -11 -11 -11 -11 -11 -11 -11 -10 -10 -10 -10 -11 -11 -11 -11 -11 -11 -11 -11 -11 -11
-12 -12 -13 -13 -13 -14 -14 -14 -14 -14 -14 -14 -14 -14 -14 -14 -14 -14 -14 -14 -14 -14 -13 -13 -13 -13 -13 -13 -12 -12 -12 -12 -11 -11 -12 -12 -12 -12 -12 -12 -12 -12 -12
-14 -14 -15 -15 -15 -16 -16 -16 -16 -16 -16 -16 -16 -16 -16 -16 -16 -16 -16 -15 -15 -15 -15 -15 -15 -14 -14 -14 -14 -14 -14 -14 -13 -13 -13 -13 -13 -13 -13 -13 -13 -13 -13
-15 -16 -16 -16 -17 -17 -17 -17 -17 -18 -18 -18 -18 -18 -18 -18 -18 -18 -17 -17 -17 -17 -16 -16 -16 -16 -16 -16 -16 -15 -15 -15 -15 -15 -15 -15 -15 -15 -15 -15 -15 -15 -15
-17 -17 -17 -18 -18 -18 -18 -18 -18 -19 -19 -19 -19 -19 -19 -19 -19 -19 -19 -19 -19 -18 -18 -18 -18 -18 -17 -17 -17 -17 -17 -17 -16 -16 -16 -16 -16 -16 -16 -16 -16 -16 -16
-19 -19 -19 -19 -19 -19 -19 -19 -20 -20 -20 -20 -20 -20 -20 -20 -20 -20 -20 -20 -20 -19 -19 -19 -19 -19 -19 -19 -18 -18 -18 -18 -18 -18 -18 -17 -17 -17 -17 -17 -17 -17 -17
-20 -20 -20 -20 -20 -20 -20 -21 -21 -21 -21 -21 -21 -21 -21 -21 -21 -21 -21 -21 -21 -20 -20 -20 -20 -20 -20 -20 -20 -19 -19 -19 -19 -19 -19 -19 -19 -19 -19 -19 -19 -19 -19
-21 -21 -21 -21 -21 -22 -22 -22 -22 -22 -22 -22 -22 -22 -22 -22 -22 -22 -22 -22 -22 -21 -21 -21 -21 -21 -21 -21 -21 -21 -21 -20 -20 -21 -20 -20 -20 -20 -20 -20 -20 -20 -20

GFSGL_700_temp_120.txt.gz
Temp
4 5 5 5 6 6 6 6 6 6 5 5 5 4 4 4 4 3 2 1 2 3 4 4 4 4 4 5 4 4 4 3 2 2 2 2 2 1 2 1 1 1 0
4 4 4 5 5 5 5 5 5 5 4 4 4 4 4 4 3 3 3 3 3 3 3 4 4 4 4 4 4 5 4 4 2 2 2 2 1 2 1 1 0 0 0
2 2 3 3 3 3 3 4 4 4 4 4 3 4 4 4 3 3 2 3 3 3 3 3 3 3 3 3 3 4 4 3 2 2 2 2 2 2 1 1 1 0 -0
1 2 2 3 3 3 3 3 4 4 4 4 4 4 4 3 3 3 3 3 3 3 3 3 3 3 3 2 2 3 3 3 2 2 2 2 1 1 0 0 0 0 0
1 2 2 2 2 2 3 3 3 3 3 3 3 4 4 4 4 4 3 3 3 3 2 2 2 2 1 2 3 3 3 3 2 2 1 2 1 1 1 1 0 -0 -0
-1 -1 -0 -0 -1 -1 0 1 0 1 1 1 2 1 1 2 1 2 2 2 2 2 2 2 2 1 1 -0 1 2 3 2 2 2 2 2 1 0 1 0 0 -0 -0
-3 -2 -2 -2 -2 -1 -1 -1 -1 0 -0 -0 -0 -0 1 1 1 1 1 1 1 1 1 1 1 1 1 0 0 1 2 2 2 1 1 1 1 1 1 0 -0 -0 -0
-3 -3 -3 -3 -3 -3 -2 -2 -2 -1 -1 -1 -0 -0 -1 -0 -0 1 1 1 1 1 1 1 1 1 0 0 -0 0 2 1 1 1 1 1 1 0 1 -0 -0 -1 -1
-4 -4 -3 -3 -3 -3 -3 -3 -3 -3 -3 -3 -2 -1 -1 -1 -1 -0 0 -0 0 0 0 1 0 0 0 -0 -0 -0 1 0 1 0 1 1 1 0 1 -0 -0 -1 -1
-4 -4 -4 -4 -4 -4 -3 -3 -3 -3 -3 -3 -3 -3 -3 -2 -2 -1 -1 -1 -1 -1 -0 -0 -1 -1 -0 -0 -0 -1 -0 0 0 0 0 1 0 0 -0 -0 -0 -0 -1
-4 -4 -4 -4 -4 -4 -4 -4 -4 -4 -4 -4 -4 -4 -4 -4 -3 -3 -3 -3 -3 -2 -1 -1 -1 -1 -1 -1 -1 -1 -1 -1 -1 0 0 0 0 -1 0 0 -0 -0 -0
-5 -5 -5 -5 -5 -5 -5 -4 -5 -4 -4 -4 -4 -4 -4 -4 -4 -4 -4 -4 -4 -4 -4 -3 -3 -3 -2 -2 -2 -1 -1 -1 -1 -1 -0 -0 -1 -0 -0 -1 -0 -1 -1
-6 -6 -6 -6 -5 -5 -6 -5 -5 -5 -5 -5 -5 -5 -5 -5 -5 -5 -5 -5 -5 -5 -5 -5 -4 -4 -4 -4 -4 -3 -2 -2 -2 -2 -2 -1 -1 -1 -1 -1 -0 -1 -1
-6 -6 -6 -6 -6 -6 -6 -6 -6 -6 -6 -5 -5 -5 -5 -5 -5 -5 -6 -6 -6 -6 -5 -5 -5 -5 -5 -5 -5 -5 -5 -5 -5 -4 -4 -4 -3 -3 -3 -3 -2 -2 -2
-7 -7 -7 -7 -7 -7 -7 -7 -7 -7 -7 -7 -7 -7 -6 -6 -6 -6 -7 -7 -6 -6 -6 -6 -6 -6 -6 -6 -6 -6 -6 -6 -6 -6 -6 -6 -6 -5 -5 -5 -5 -5 -6
-8 -8 -8 -8 -8 -8 -8 -8 -8 -8 -8 -8 -8 -8 -8 -8 -8 -7 -7 -7 -7 -8 -8 -7 -7 -7 -7 -7 -7 -7 -7 -7 -7 -7 -7 -7 -7 -7 -7 -7 -7 -7 -7
-9 -9 -9 -9 -9 -9 -9 -9 -9 -9 -9 -9 -9 -9 -9 -9 -9 -9 -9 -9 -9 -9 -9 -9 -9 -9 -8 -8 -8 -8 -8 -8 -8 -8 -8 -8 -8 -8 -7 -7 -7 -7 -8
-10 -10 -10 -10 -10 -10 -10 -10 -10 -10 -10 -10 -11 -11 -11 -11 -11 -11 -10 -10 -10 -11 -11 -11 -10 -10 -10 -10 -10 -10 -9 -9 -9 -9 -9 -9 -9 -9 -9 -9 -8 -8 -8
-11 -11 -11 -11 -12 -12 -12 -12 -12 -12 -12 -12 -12 -12 -12 -13 -13 -13 -13 -13 -13 -12 -12 -12 -12 -12 -12 -12 -11 -11 -11 -11 -11 -10 -10 -10 -10 -10 -10 -10 -10 -10 -10
-12 -13 -13 -13 -14 -14 -14 -14 -15 -15 -15 -15 -15 -15 -15 -15 -15 -15 -15 -15 -14 -14 -14 -14 -14 -13 -13 -13 -13 -13 -12 -12 -12 -12 -12 -12 -12 -12 -12 -12 -12 -11 -12
-14 -14 -14 -15 -15 -15 -16 -16 -17 -17 -17 -17 -17 -17 -17 -17 -16 -16 -16 -16 -16 -16 -16 -16 -16 -15 -15 -15 -15 -14 -14 -14 -14 -14 -13 -13 -13 -13 -13 -13 -13 -13 -13
-15 -16 -16 -16 -17 -17 -17 -18 -18 -18 -18 -18 -18 -18 -18 -18 -18 -18 -18 -18 -18 -18 -18 -18 -17 -17 -17 -17 -16 -16 -16 -16 -16 -16 -15 -15 -15 -15 -15 -15 -15 -15 -15
-17 -18 -18 -18 -19 -19 -19 -19 -19 -19 -19 -19 -20 -19 -20 -20 -20 -20 -19 -19 -19 -19 -19 -19 -19 -19 -18 -18 -18 -18 -18 -17 -17 -17 -17 -17 -17 -16 -16 -16 -16 -16 -16
-19 -19 -20 -20 -20 -20 -20 -20 -20 -20 -21 -21 -21 -21 -21 -21 -21 -21 -21 -21 -20 -20 -20 -20 -20 -20 -20 -19 -19 -19 -19 -19 -19 -18 -18 -18 -18 -18 -18 -17 -17 -17 -17
-20 -20 -21 -21 -21 -21 -21 -22 -22 -22 -22 -22 -22 -22 -22 -22 -22 -22 -22 -21 -21 -21 -21 -21 -21 -21 -21 -20 -20 -20 -20 -20 -20 -19 -19 -19 -19 -19 -19 -19 -19 -19 -18
-21 -22 -22 -22 -22 -22 -22 -22 -22 -23 -23 -23 -23 -23 -23 -23 -23 -23 -22 -22 -22 -22 -22 -22 -22 -22 -22 -22 -22 -21 -21 -21 -21 -21 -20 -20 -20 -20 -20 -20 -20 -20 -20

GFSGL_700_temp_123.txt.gz
Temp
1 2 2 3 4 3 3 3 1 2 4 5 5 6 6 5 5 5 5 4 4 3 2 2 3 2 2 2 3 3 3 3 2 4 4 4 3 3 2 2 1 1 2
1 1 1 2 1 1 0 0 2 3 4 5 5 6 5 5 5 4 4 3 3 3 2 1 1 1 1 3 2 3 3 3 2 2 4 5 4 3 2 2 2 1 1
1 1 1 2 1 1 2 3 4 4 5 5 5 4 5 4 4 4 4 4 3 3 2 1 2 2 2 2 2 2 3 3 3 2 3 4 4 3 2 2 2 1 1
-1 -1 1 2 2 3 3 3 4 4 4 4 4 4 4 4 4 3 4 4 4 4 3 2 2 2 2 2 2 2 2 2 2 3 2 4 3 3 2 2 2 2 1
-2 -0 1 2 2 2 2 3 3 4 3 3 3 3 3 3 3 3 3 3 3 3 3 2 2 2 2 2 2 2 2 2 1 1 3 3 2 2 2 1 1 1 1
-2 0 1 2 2 2 3 3 3 1 2 2 2 2 3 3 3 3 3 3 3 3 3 3 1 1 3 2 2 2 1 1 1 1 2 2 2 2 2 2 1 1 1
-2 -2 -1 -0 -0 -0 -2 -1 -1 -1 -1 -0 -0 -1 -1 -0 0 0 1 1 1 1 1 1 0 1 1 1 1 1 1 1 1 0 1 2 1 1 1 1 1 1 1
-3 -2 -2 -2 -3 -3 -3 -2 -2 -2 -1 -1 -1 -1 -0 -0 -0 -0 -0 0 1 1 1 1 1 1 1 1 1 1 1 1 0 0 -0 0 1 1 1 1 0 1 1
-4 -4 -3 -3 -3 -3 -3 -3 -3 -3 -3 -3 -3 -2 -3 -2 -2 -2 -1 -1 -1 -1 -1 -0 0 1 1 1 1 0 0 0 0 -0 -0 -0 1 1 1 1 1 0 1
-4 -4 -4 -4 -3 -3 -3 -3 -3 -3 -3 -3 -3 -3 -3 -3 -3 -3 -3 -3 -2 -1 -1 -1 -1 -1 -1 -0 -0 -0 -0 -0 -0 -0 -0 -0 -0 1 1 1 0 -0 0
-4 -4 -4 -4 -4 -4 -4 -4 -4 -4 -4 -4 -4 -4 -4 -3 -3 -3 -3 -3 -3 -3 -3 -3 -3 -2 -2 -1 -1 -1 -1 -1 -1 -1 -1 -1 0 -0 -0 0 0 -0 0
-5 -5 -5 -4 -4 -4 -4 -4 -4 -4 -4 -4 -4 -4 -4 -4 -4 -4 -4 -4 -4 -4 -4 -4 -4 -4 -4 -3 -3 -3 -2 -2 -2 -2 -1 -1 -1 -1 -1 -0 -1 -0 -1
-6 -6 -6 -6 -5 -5 -5 -5 -5 -5 -5 -5 -5 -5 -5 -5 -5 -5 -5 -5 -5 -4 -5 -5 -5 -4 -4 -4 -4 -4 -4 -4 -4 -3 -2 -2 -2 -2 -1 -1 -1 -1 -1
-6 -6 -6 -6 -6 -6 -6 -6 -6 -6 -6 -6 -6 -6 -6 -6 -6 -6 -6 -6 -6 -5 -5 -5 -5 -5 -5 -5 -5 -5 -5 -5 -5 -5 -5 -4 -4 -4 -3 -3 -3 -3 -3
-7 -7 -7 -7 -7 -7 -7 -7 -7 -7 -7 -7 -7 -7 -6 -7 -7 -6 -7 -7 -7 -7 -6 -6 -6 -6 -6 -6 -6 -6 -6 -6 -6 -6 -6 -6 -6 -5 -6 -6 -5 -5 -5
-8 -8 -8 -8 -8 -8 -8 -8 -7 -8 -8 -8 -8 -8 -8 -8 -8 -8 -7 -7 -7 -7 -8 -8 -8 -7 -7 -7 -7 -7 -7 -7 -7 -7 -7 -7 -7 -7 -7 -7 -7 -7 -7
-9 -9 -9 -9 -9 -9 -9 -9 -9 -9 -9 -9 -9 -9 -9 -9 -9 -9 -9 -9 -9 -9 -9 -9 -9 -9 -9 -9 -9 -9 -8 -8 -8 -8 -8 -8 -8 -8 -8 -8 -8 -8 -8
-9 -10 -10 -10 -10 -10 -10 -10 -10 -10 -10 -10 -10 -10 -10 -10 -10 -11 -11 -11 -11 -11 -11 -11 -11 -10 -10 -10 -10 -10 -10 -10 -10 -9 -9 -9 -9 -9 -9 -9 -9 -8 -9
-11 -11 -11 -11 -11 -12 -12 -12 -12 -12 -12 -12 -12 -12 -13 -13 -13 -13 -13 -13 -13 -13 -13 -13 -13 -13 -13 -12 -12 -12 -12 -11 -11 -11 -11 -11 -11 -10 -10 -10 -10 -10 -10
-12 -12 -13 -13 -13 -13 -14 -14 -14 -14 -15 -15 -15 -15 -16 -16 -16 -16 -16 -15 -15 -15 -15 -15 -15 -15 -15 -14 -14 -14 -14 -13 -13 -13 -12 -12 -12 -12 -12 -12 -12 -12 -11
-13 -14 -14 -15 -15 -15 -16 -16 -17 -17 -17 -17 -18 -17 -18 -18 -17 -17 -17 -17 -17 -17 -17 -17 -17 -17 -16 -16 -16 -15 -15 -15 -15 -15 -14 -14 -14 -14 -13 -13 -13 -13 -13
-15 -16 -16 -17 -17 -18 -18 -18 -19 -19 -19 -19 -19 -19 -19 -19 -19 -19 -19 -19 -18 -18 -18 -18 -18 -18 -18 -18 -18 -17 -17 -17 -16 -16 -16 -16 -16 -15 -15 -15 -15 -15 -15
-17 -17 -18 -18 -19 -19 -19 -20 -20 -20 -20 -20 -21 -20 -20 -20 -20 -20 -20 -20 -20 -20 -19 -19 -20 -19 -19 -19 -19 -19 -18 -18 -18 -18 -18 -17 -17 -17 -17 -17 -17 -16 -17
-18 -19 -20 -20 -20 -21 -21 -21 -21 -21 -21 -21 -22 -22 -22 -22 -21 -21 -21 -21 -21 -21 -21 -21 -20 -20 -20 -20 -20 -20 -20 -20 -19 -19 -19 -19 -19 -19 -18 -18 -18 -18 -18
-20 -20 -21 -21 -21 -22 -22 -22 -22 -22 -22 -22 -23 -23 -23 -23 -23 -22 -22 -22 -22 -22 -22 -22 -21 -21 -21 -21 -21 -21 -21 -20 -20 -20 -20 -20 -20 -20 -20 -19 -19 -19 -19
-21 -21 -22 -22 -22 -23 -23 -23 -23 -23 -23 -23 -24 -23 -23 -23 -23 -23 -23 -23 -23 -23 -23 -23 -23 -22 -22 -22 -22 -22 -22 -21 -21 -21 -21 -21 -21 -21 -21 -20 -20 -20 -20

GFSGL_700_temp_129.txt.gz
Temp
-5 -5 -5 -3 -3 -2 -1 -0 1 1 1 1 1 2 5 5 4 4 4 4 4 4 4 4 4 3 2 3 2 2 2 2 2 2 1 1 2 3 3 3 3 2 2
-5 -5 -4 -3 -2 -1 0 1 1 1 1 2 2 3 3 4 3 4 3 3 3 4 4 3 3 3 3 2 2 3 2 3 2 2 2 2 2 2 2 3 3 3 3
-5 -3 -3 -2 -0 -0 1 1 2 1 1 3 1 2 4 0 2 1 1 1 2 2 3 3 2 3 3 3 2 2 3 3 3 2 3 2 2 3 3 3 2 2 2
-3 -3 -1 -1 -1 -0 0 2 3 -0 1 1 0 0 -0 0 2 1 2 1 0 2 3 2 2 2 2 3 3 3 2 2 2 2 2 2 2 3 2 1 1 2 1
-3 -3 -2 -2 -1 -1 -1 -0 -0 0 1 -1 -1 -1 -0 -1 -0 0 0 -0 -0 1 2 1 1 2 2 1 2 2 2 2 2 2 2 2 2 2 2 1 1 2 2
-4 -4 -4 -3 -2 -2 -1 -1 -1 -2 -1 -1 -1 -1 -0 -0 -0 -0 0 1 0 1 1 1 1 2 1 1 1 1 1 1 1 2 2 2 2 2 1 1 2 1 1
-4 -4 -4 -3 -3 -2 -1 -1 -2 -2 -2 -2 -1 -0 -1 -1 -1 -0 -0 -0 -1 -1 -0 0 1 1 0 1 1 1 1 1 1 1 1 1 1 1 1 0 1 0 1
-4 -4 -4 -3 -3 -2 -3 -2 -2 -2 -2 -3 -2 -2 -2 -2 -1 -1 -1 -1 -1 -1 -1 -1 -1 -1 -1 -1 -0 0 0 0 1 0 0 0 0 -0 1 1 1 0 0
-5 -5 -4 -4 -3 -3 -3 -2 -2 -3 -3 -2 -2 -2 -2 -2 -2 -2 -2 -2 -2 -2 -2 -2 -1 -2 -2 -1 -1 -1 -0 -1 -1 -0 0 -0 -0 -0 0 -0 -0 1 -0
-6 -5 -5 -5 -4 -4 -3 -3 -3 -3 -3 -3 -3 -3 -3 -2 -3 -3 -3 -3 -3 -3 -2 -2 -2 -2 -2 -2 -2 -2 -3 -2 -2 -2 -1 -2 -2 -1 -0 -0 -0 -1 -0
-6 -6 -6 -5 -5 -4 -4 -5 -4 -4 -4 -4 -4 -4 -4 -3 -3 -3 -3 -3 -3 -4 -4 -3 -3 -3 -3 -3 -3 -3 -3 -3 -2 -3 -3 -2 -2 -2 -1 -1 -2 -1 -1
-7 -6 -6 -6 -6 -6 -6 -6 -7 -6 -6 -6 -6 -5 -5 -5 -5 -4 -4 -4 -4 -4 -4 -4 -4 -4 -4 -4 -3 -3 -3 -3 -3 -3 -3 -3 -3 -3 -3 -2 -2 -1 -1
-7 -7 -7 -7 -7 -7 -7 -7 -7 -7 -7 -7 -6 -6 -6 -6 -6 -6 -6 -5 -5 -5 -5 -5 -5 -5 -5 -5 -5 -5 -4 -4 -4 -4 -4 -4 -4 -4 -4 -4 -4 -3 -3
-8 -8 -8 -8 -8 -8 -8 -8 -8 -8 -8 -7 -7 -7 -7 -7 -7 -7 -7 -7 -7 -7 -7 -7 -6 -6 -6 -6 -6 -6 -6 -6 -6 -5 -5 -5 -5 -5 -5 -5 -5 -5 -5
-8 -9 -9 -9 -9 -9 -9 -9 -9 -9 -9 -9 -9 -9 -9 -9 -9 -9 -8 -8 -8 -8 -8 -8 -7 -7 -7 -7 -7 -7 -7 -7 -7 -7 -7 -6 -6 -6 -6 -6 -6 -6 -6
-8 -8 -8 -8 -9 -9 -9 -9 -9 -9 -9 -9 -10 -11 -11 -11 -10 -11 -10 -10 -10 -10 -9 -9 -9 -9 -9 -9 -9 -9 -9 -9 -9 -8 -8 -8 -8 -8 -7 -7 -7 -7 -6
-8 -8 -8 -8 -8 -8 -8 -9 -9 -9 -10 -9 -10 -11 -12 -12 -12 -12 -13 -13 -13 -13 -13 -12 -12 -12 -12 -11 -11 -11 -11 -11 -11 -11 -10 -10 -10 -10 -9 -9 -8 -8 -8
-9 -9 -9 -10 -10 -10 -10 -11 -11 -12 -12 -13 -13 -13 -14 -14 -14 -15 -16 -16 -16 -16 -16 -16 -15 -15 -15 -14 -14 -14 -13 -13 -13 -13 -13 -12 -12 -11 -11 -10 -10 -10 -9
-10 -10 -11 -11 -11 -11 -12 -13 -14 -15 -16 -16 -16 -17 -17 -17 -17 -17 -17 -18 -18 -18 -18 -18 -17 -17 -17 -17 -16 -16 -16 -16 -15 -15 -15 -14 -14 -13 -13 -12 -12 -12 -12
-11 -12 -12 -12 -12 -13 -14 -14 -15 -16 -16 -17 -17 -17 -17 -18 -18 -18 -19 -19 -19 -19 -19 -19 -19 -19 -19 -18 -18 -18 -18 -18 -18 -17 -17 -16 -16 -15 -15 -14 -14 -14 -13
-12 -12 -13 -13 -14 -15 -16 -16 -16 -17 -17 -17 -18 -18 -18 -19 -19 -19 -19 -20 -20 -20 -20 -20 -20 -20 -20 -20 -20 -20 -19 -19 -19 -19 -18 -18 -17 -17 -16 -16 -16 -15 -15
-13 -14 -15 -15 -16 -17 -17 -17 -18 -18 -19 -19 -19 -20 -20 -21 -21 -21 -21 -21 -21 -21 -21 -21 -21 -21 -21 -21 -21 -21 -20 -20 -20 -20 -19 -19 -19 -18 -18 -18 -17 -17 -17
-15 -16 -16 -17 -17 -18 -18 -19 -19 -19 -20 -20 -21 -21 -22 -22 -23 -23 -23 -22 -22 -22 -22 -22 -22 -22 -22 -22 -22 -22 -22 -21 -21 -21 -20 -20 -20 -20 -19 -19 -19 -19 -19
-16 -17 -18 -18 -19 -19 -19 -20 -20 -21 -21 -22 -22 -23 -24 -24 -24 -25 -25 -24 -24 -24 -24 -23 -23 -23 -23 -23 -23 -23 -23 -22 -22 -22 -21 -21 -21 -21 -21 -20 -20 -20 -20
-18 -18 -19 -19 -19 -20 -20 -21 -21 -22 -23 -23 -24 -25 -25 -25 -26 -26 -27 -26 -26 -26 -25 -25 -24 -24 -24 -24 -24 -23 -23 -23 -23 -23 -22 -22 -22 -22 -22 -21 -21 -21 -21
-19 -19 -19 -20 -20 -21 -21 -22 -23 -24 -24 -25 -25 -26 -27 -27 -28 -28 -28 -28 -28 -27 -27 -26 -25 -25 -25 -25 -25 -24 -24 -24 -24 -24 -23 -23 -23 -23 -23 -22 -22 -22 -22